CCA940 LIRF-ZBAA

Flight info

Callsign CCA940
Flight time 9h 27m
Altitude 32000
Route SOVAN DCT AMTEL DCT TAGIP DCT BRENO/N0483F330 DCT KONIN DCT EXITI DCT ALOSO DCT VEVAS DCT RAKIT DCT CIPPI DCT DETNI DCT EVONA P862 NETNA/N0481F330 DCT TUKMA P989 OBIBA/N0480F350 P997 AKUGI T635 SADER T580 ADMUR G117 XV R229 BA R104 GINOM/K0892S1130 Y655 INTIK A575 LHT B458 TMR/K0801S0810 B458 BIKUT W69 P520/K0710S0510 W69 GUVBA
Aircraft B77W/H-SDE3FGHIJ1J2J3J4J5M1P2RWXYZ/LB1D1

Departure

Time 2026-05-07 23:00
Airport Rome–Fiumicino Leonardo da Vinci International Airport (LIRF)

Arrival

Time 2026-05-08 08:28
Airport Beijing Capital International Airport (ZBAA)
Time Latitude Longitude Altitude Speed Heading
2026-05-07 22:39 41.79869 12.24749 19 ft 0 kts 205°
2026-05-07 22:47 41.79873 12.24751 19 ft 3 kts 205°
2026-05-07 22:47 41.79897 12.24766 20 ft 4 kts 205°
2026-05-07 22:48 41.79921 12.24781 24 ft 4 kts 205°
2026-05-07 22:48 41.79946 12.24797 23 ft 3 kts 205°
2026-05-07 22:48 41.79967 12.24806 23 ft 4 kts 169°
2026-05-07 22:48 41.79984 12.24790 23 ft 4 kts 107°
2026-05-07 22:49 41.79987 12.24755 23 ft 4 kts 77°
2026-05-07 22:49 41.79979 12.24721 23 ft 4 kts 70°
2026-05-07 22:49 41.79973 12.24701 23 ft 0 kts 70°
2026-05-07 22:53 41.79976 12.24714 23 ft 5 kts 70°
2026-05-07 22:53 41.79986 12.24750 19 ft 2 kts 70°
2026-05-07 22:53 41.79999 12.24777 19 ft 7 kts 45°
2026-05-07 22:53 41.80046 12.24784 19 ft 6 kts 350°
2026-05-07 22:54 41.80097 12.24775 20 ft 8 kts 355°
2026-05-07 22:54 41.80156 12.24777 19 ft 8 kts 11°
2026-05-07 22:54 41.80193 12.24826 18 ft 9 kts 64°
2026-05-07 22:54 41.80206 12.24915 18 ft 10 kts 86°
2026-05-07 22:55 41.80205 12.25010 18 ft 11 kts 88°
2026-05-07 22:55 41.80222 12.25125 18 ft 16 kts 73°
2026-05-07 22:55 41.80261 12.25269 18 ft 16 kts 70°
2026-05-07 22:55 41.80298 12.25404 20 ft 15 kts 70°
2026-05-07 22:56 41.80337 12.25544 22 ft 17 kts 69°
2026-05-07 22:56 41.80379 12.25699 22 ft 18 kts 70°
2026-05-07 22:56 41.80423 12.25857 20 ft 18 kts 69°
2026-05-07 22:56 41.80466 12.26014 20 ft 17 kts 70°
2026-05-07 22:57 41.80508 12.26164 24 ft 17 kts 70°
2026-05-07 22:57 41.80549 12.26312 23 ft 17 kts 70°
2026-05-07 22:57 41.80588 12.26455 20 ft 16 kts 70°
2026-05-07 22:57 41.80632 12.26616 20 ft 21 kts 70°
2026-05-07 22:58 41.80682 12.26797 19 ft 20 kts 70°
2026-05-07 22:58 41.80729 12.26966 18 ft 16 kts 70°
2026-05-07 22:58 41.80775 12.27042 18 ft 11 kts 14°
2026-05-07 22:58 41.80850 12.27021 18 ft 12 kts 339°
2026-05-07 22:59 41.80931 12.26980 18 ft 12 kts 339°
2026-05-07 22:59 41.80951 12.26900 17 ft 7 kts 250°
2026-05-07 22:59 41.80945 12.26878 18 ft 10 kts 250°
2026-05-07 22:59 41.80854 12.26551 24 ft 72 kts 250°
2026-05-07 23:00 41.80598 12.25623 21 ft 138 kts 250°
2026-05-07 23:00 41.80201 12.24198 112 ft 177 kts 250°
2026-05-07 23:00 41.79754 12.22627 571 ft 186 kts 250°
2026-05-07 23:00 41.79256 12.20974 1012 ft 195 kts 252°
2026-05-07 23:01 41.79126 12.19153 1312 ft 201 kts 288°
2026-05-07 23:01 41.79806 12.17590 1931 ft 193 kts 315°
2026-05-07 23:01 41.80713 12.16264 2312 ft 194 kts 315°
2026-05-07 23:01 41.81605 12.14896 2680 ft 196 kts 313°
2026-05-07 23:02 41.82474 12.13491 3066 ft 196 kts 311°
2026-05-07 23:02 41.83339 12.12056 3401 ft 202 kts 310°
2026-05-07 23:02 41.84237 12.10567 3657 ft 208 kts 317°
2026-05-07 23:02 41.85520 12.09627 3740 ft 217 kts 348°
2026-05-07 23:03 41.86503 12.09326 3923 ft 223 kts 349°
2026-05-07 23:03 41.88090 12.08856 4101 ft 242 kts 348°
2026-05-07 23:03 41.89778 12.08301 4397 ft 258 kts 346°
2026-05-07 23:03 41.91546 12.07669 4839 ft 268 kts 346°
2026-05-07 23:04 41.93364 12.07001 5384 ft 274 kts 345°
2026-05-07 23:04 41.95223 12.06311 5952 ft 280 kts 345°
2026-05-07 23:04 41.97135 12.05823 6529 ft 282 kts 355°
2026-05-07 23:04 41.99104 12.05663 7090 ft 286 kts 358°
2026-05-07 23:05 42.01097 12.05540 7687 ft 289 kts 357°
2026-05-07 23:05 42.03113 12.05382 8257 ft 292 kts 356°
2026-05-07 23:05 42.05163 12.05196 8797 ft 296 kts 356°
2026-05-07 23:05 42.07225 12.04998 9422 ft 298 kts 355°
2026-05-07 23:06 42.09297 12.04797 10032 ft 299 kts 355°
2026-05-07 23:06 42.11393 12.04593 10499 ft 307 kts 355°
2026-05-07 23:06 42.13594 12.04376 10612 ft 327 kts 355°
2026-05-07 23:06 42.15934 12.04146 10766 ft 347 kts 355°
2026-05-07 23:07 42.18419 12.03898 10910 ft 368 kts 354°
2026-05-07 23:07 42.21000 12.03449 11253 ft 379 kts 350°
2026-05-07 23:07 42.23627 12.02828 11884 ft 387 kts 349°
2026-05-07 23:07 42.26283 12.02175 12716 ft 389 kts 349°
2026-05-07 23:08 42.28956 12.01535 13538 ft 393 kts 349°
2026-05-07 23:08 42.31669 12.00908 14225 ft 398 kts 349°
2026-05-07 23:08 42.34412 12.00289 14923 ft 401 kts 349°
2026-05-07 23:08 42.37177 11.99667 15638 ft 405 kts 349°
2026-05-07 23:09 42.39931 11.99049 16340 ft 408 kts 349°
2026-05-07 23:09 42.42747 11.98418 17019 ft 412 kts 349°
2026-05-07 23:09 42.45591 11.97779 17700 ft 417 kts 349°
2026-05-07 23:09 42.48464 11.97132 18365 ft 421 kts 348°
2026-05-07 23:10 42.51366 11.96478 18934 ft 425 kts 348°
2026-05-07 23:10 42.54298 11.95817 19501 ft 429 kts 348°
2026-05-07 23:10 42.57258 11.95149 20053 ft 434 kts 348°
2026-05-07 23:10 42.60250 11.94474 20617 ft 438 kts 348°
2026-05-07 23:11 42.63266 11.93792 21215 ft 441 kts 348°
2026-05-07 23:11 42.66304 11.93105 21781 ft 444 kts 348°
2026-05-07 23:11 42.69371 11.92410 22333 ft 449 kts 348°
2026-05-07 23:11 42.72464 11.91708 22853 ft 453 kts 348°
2026-05-07 23:12 42.75590 11.90998 23380 ft 457 kts 348°
2026-05-07 23:12 42.78742 11.90282 23842 ft 461 kts 348°
2026-05-07 23:12 42.81912 11.89560 24312 ft 463 kts 347°
2026-05-07 23:12 42.85016 11.88445 24790 ft 459 kts 333°
2026-05-07 23:13 42.87844 11.86453 25212 ft 458 kts 327°
2026-05-07 23:13 42.90611 11.84271 25625 ft 461 kts 326°
2026-05-07 23:13 42.93405 11.82081 26047 ft 465 kts 327°
2026-05-07 23:13 42.96236 11.79914 26487 ft 468 kts 327°
2026-05-07 23:14 42.99098 11.77774 26920 ft 470 kts 328°
2026-05-07 23:14 43.01946 11.75673 27316 ft 473 kts 328°
2026-05-07 23:14 43.04857 11.73539 27708 ft 476 kts 327°
2026-05-07 23:14 43.07826 11.71360 28074 ft 480 kts 327°
2026-05-07 23:15 43.10734 11.69222 28424 ft 483 kts 327°
2026-05-07 23:15 43.13696 11.67040 28798 ft 485 kts 327°
2026-05-07 23:15 43.16674 11.64841 29128 ft 488 kts 327°
2026-05-07 23:15 43.19685 11.62665 29437 ft 492 kts 330°
2026-05-07 23:16 43.22850 11.60815 29720 ft 498 kts 335°
2026-05-07 23:16 43.26167 11.59388 30133 ft 502 kts 341°
2026-05-07 23:16 43.29567 11.58293 30545 ft 500 kts 342°
2026-05-07 23:16 43.32956 11.57240 30988 ft 498 kts 342°
2026-05-07 23:17 43.36328 11.56196 31380 ft 496 kts 342°
2026-05-07 23:17 43.39689 11.55143 31741 ft 495 kts 341°
2026-05-07 23:17 43.43045 11.54076 31966 ft 497 kts 341°
2026-05-07 23:18 43.49792 11.51895 32002 ft 496 kts 340°
2026-05-07 23:18 43.56466 11.49716 32009 ft 491 kts 340°
2026-05-07 23:19 43.63111 11.47539 32017 ft 491 kts 340°
2026-05-07 23:19 43.69760 11.45354 32013 ft 492 kts 340°
2026-05-07 23:20 43.76427 11.43162 32020 ft 493 kts 340°
2026-05-07 23:20 43.83101 11.40965 32017 ft 494 kts 340°
2026-05-07 23:21 43.89794 11.38758 32025 ft 494 kts 340°
2026-05-07 23:21 43.96482 11.36546 32025 ft 494 kts 340°
2026-05-07 23:22 44.03113 11.34348 32048 ft 493 kts 340°
2026-05-07 23:22 44.09822 11.32120 32071 ft 491 kts 339°
2026-05-07 23:23 44.16413 11.29926 32105 ft 489 kts 339°
2026-05-07 23:23 44.23026 11.27717 32105 ft 489 kts 339°
2026-05-07 23:24 44.29635 11.25506 32100 ft 487 kts 339°
2026-05-07 23:24 44.36230 11.23293 32101 ft 488 kts 339°
2026-05-07 23:25 44.42836 11.21070 32101 ft 489 kts 339°
2026-05-07 23:25 44.49463 11.18836 32089 ft 490 kts 339°
2026-05-07 23:26 44.56084 11.16601 32076 ft 489 kts 339°
2026-05-07 23:26 44.62685 11.14368 32073 ft 487 kts 339°
2026-05-07 23:27 44.72553 11.11018 32072 ft 485 kts 339°
2026-05-07 23:27 44.79113 11.08784 32066 ft 484 kts 339°
2026-05-07 23:28 44.85651 11.06552 32083 ft 483 kts 339°
2026-05-07 23:28 44.92176 11.04319 32052 ft 482 kts 339°
2026-05-07 23:29 44.98690 11.02085 32055 ft 481 kts 339°
2026-05-07 23:29 45.05193 10.99850 32056 ft 481 kts 339°
2026-05-07 23:30 45.11682 10.97615 32020 ft 479 kts 339°
2026-05-07 23:30 45.18218 10.95650 32056 ft 488 kts 347°
2026-05-07 23:31 45.21637 10.95385 32279 ft 495 kts 353°
2026-05-07 23:31 45.25096 10.95557 32644 ft 500 kts 359°
2026-05-07 23:31 45.28550 10.96230 33060 ft 501 kts
2026-05-07 23:31 45.32002 10.97053 33026 ft 505 kts
2026-05-07 23:32 45.38897 10.98796 33044 ft 501 kts
2026-05-07 23:32 45.45744 11.00493 33071 ft 499 kts
2026-05-07 23:33 45.52576 11.02132 33058 ft 497 kts
2026-05-07 23:33 45.59400 11.03754 33053 ft 497 kts
2026-05-07 23:34 45.66233 11.05386 33067 ft 498 kts
2026-05-07 23:34 45.73075 11.07036 33041 ft 499 kts
2026-05-07 23:35 45.79916 11.08695 33086 ft 499 kts
2026-05-07 23:35 45.86783 11.10329 33090 ft 500 kts
2026-05-07 23:36 45.93641 11.11975 33097 ft 499 kts
2026-05-07 23:36 46.00483 11.13632 33101 ft 498 kts
2026-05-07 23:37 46.07306 11.15292 33127 ft 496 kts
2026-05-07 23:37 46.14092 11.16942 33107 ft 493 kts
2026-05-07 23:38 46.20845 11.18587 33132 ft 491 kts
2026-05-07 23:38 46.27586 11.20233 33134 ft 491 kts
2026-05-07 23:39 46.34311 11.21881 33132 ft 490 kts
2026-05-07 23:39 46.41062 11.23537 33086 ft 494 kts
2026-05-07 23:40 46.47835 11.25142 33125 ft 492 kts
2026-05-07 23:40 46.54596 11.26832 33107 ft 494 kts
2026-05-07 23:41 46.61384 11.28554 33103 ft 496 kts
2026-05-07 23:41 46.68180 11.30243 33098 ft 495 kts
2026-05-07 23:42 46.74958 11.31937 33096 ft 493 kts
2026-05-07 23:42 46.81706 11.33620 33114 ft 491 kts
2026-05-07 23:43 46.88390 11.35287 33110 ft 490 kts
2026-05-07 23:43 46.95109 11.36973 33106 ft 490 kts
2026-05-07 23:44 47.01840 11.37826 33105 ft 482 kts 355°
2026-05-07 23:44 47.08557 11.37701 33104 ft 482 kts 354°
2026-05-07 23:45 47.15276 11.37549 33105 ft 483 kts 354°
2026-05-07 23:45 47.21998 11.37450 33093 ft 483 kts 354°
2026-05-07 23:46 47.28718 11.37382 33102 ft 483 kts 354°
2026-05-07 23:46 47.35428 11.37318 33108 ft 482 kts 354°
2026-05-07 23:47 47.42132 11.37248 33094 ft 482 kts 354°
2026-05-07 23:47 47.48821 11.37185 33082 ft 479 kts 354°
2026-05-07 23:48 47.55426 11.37118 33122 ft 477 kts 354°
2026-05-07 23:48 47.62077 11.37044 33117 ft 478 kts 354°
2026-05-07 23:49 47.68743 11.36973 33110 ft 480 kts 355°
2026-05-07 23:49 47.75420 11.36905 33110 ft 480 kts 355°
2026-05-07 23:50 47.82100 11.36837 33090 ft 480 kts 355°
2026-05-07 23:50 47.88781 11.36807 33106 ft 481 kts 356°
2026-05-07 23:51 47.95475 11.36961 33080 ft 481 kts 356°
2026-05-07 23:51 48.01030 11.37119 33074 ft 480 kts 356°
2026-05-07 23:52 48.07698 11.37289 33075 ft 479 kts 356°
2026-05-07 23:52 48.14359 11.37442 33080 ft 478 kts 356°
2026-05-07 23:53 48.21005 11.37589 33077 ft 477 kts 356°
2026-05-07 23:53 48.27644 11.37737 33082 ft 477 kts 356°
2026-05-07 23:54 48.34277 11.37885 33084 ft 476 kts 356°
2026-05-07 23:54 48.40908 11.38034 33088 ft 477 kts 356°
2026-05-07 23:55 48.47543 11.38184 33086 ft 477 kts 356°
2026-05-07 23:55 48.54187 11.38334 33122 ft 478 kts 356°
2026-05-07 23:56 48.60840 11.38485 33104 ft 478 kts 356°
2026-05-07 23:56 48.67489 11.38638 33103 ft 478 kts 356°
2026-05-07 23:57 48.74132 11.38789 33115 ft 477 kts 356°
2026-05-07 23:57 48.80778 11.38941 33104 ft 478 kts 356°
2026-05-07 23:58 48.87423 11.39094 33103 ft 477 kts 356°
2026-05-07 23:58 48.94022 11.39246 33098 ft 477 kts 356°
2026-05-07 23:59 49.00661 11.39399 33109 ft 477 kts 357°
2026-05-07 23:59 49.07302 11.39552 33099 ft 477 kts 357°
2026-05-08 00:00 49.13936 11.39707 33095 ft 476 kts 357°
2026-05-08 00:00 49.20562 11.39861 33124 ft 476 kts 357°
2026-05-08 00:01 49.27190 11.40015 33108 ft 476 kts 357°
2026-05-08 00:01 49.33812 11.40170 33110 ft 476 kts 357°
2026-05-08 00:02 49.40427 11.40326 33113 ft 476 kts 357°
2026-05-08 00:02 49.47051 11.40481 33116 ft 476 kts 357°
2026-05-08 00:03 49.53680 11.40638 33101 ft 476 kts 357°
2026-05-08 00:03 49.60304 11.41545 33092 ft 480 kts
2026-05-08 00:04 49.66893 11.43271 33101 ft 481 kts
2026-05-08 00:04 49.73493 11.45018 33091 ft 481 kts
2026-05-08 00:05 49.80095 11.46717 33089 ft 481 kts
2026-05-08 00:05 49.86654 11.48385 33114 ft 481 kts
2026-05-08 00:06 49.93267 11.50067 33105 ft 481 kts
2026-05-08 00:06 49.99875 11.51757 33106 ft 481 kts
2026-05-08 00:07 50.06487 11.53452 33108 ft 482 kts
2026-05-08 00:07 50.13098 11.55152 33110 ft 482 kts
2026-05-08 00:08 50.19712 11.56858 33103 ft 482 kts
2026-05-08 00:08 50.26325 11.58569 33106 ft 482 kts
2026-05-08 00:09 50.32940 11.60285 33118 ft 482 kts
2026-05-08 00:09 50.39554 11.62005 33103 ft 482 kts
2026-05-08 00:10 50.46153 11.63727 33114 ft 481 kts
2026-05-08 00:10 50.52749 11.65452 33113 ft 480 kts
2026-05-08 00:11 50.59335 11.67180 33124 ft 479 kts
2026-05-08 00:11 50.65913 11.68918 33121 ft 480 kts
2026-05-08 00:12 50.72245 11.72107 33128 ft 484 kts 22°
2026-05-08 00:12 50.78078 11.77476 33132 ft 487 kts 31°
2026-05-08 00:13 50.83746 11.83488 33128 ft 488 kts 32°
2026-05-08 00:13 50.89353 11.89417 33127 ft 488 kts 31°
2026-05-08 00:14 50.95017 11.95352 33124 ft 488 kts 31°
2026-05-08 00:14 51.00690 12.01284 33127 ft 488 kts 31°
2026-05-08 00:15 51.06359 12.07227 33123 ft 488 kts 31°
2026-05-08 00:15 51.12018 12.13183 33125 ft 487 kts 31°
2026-05-08 00:16 51.17667 12.19148 33138 ft 487 kts 32°
2026-05-08 00:16 51.23308 12.25121 33129 ft 486 kts 32°
2026-05-08 00:17 51.28941 12.31105 33127 ft 486 kts 32°
2026-05-08 00:17 51.34565 12.37095 33129 ft 486 kts 32°
2026-05-08 00:18 51.40184 12.43100 33147 ft 485 kts 32°
2026-05-08 00:18 51.45799 12.49117 33131 ft 485 kts 32°
2026-05-08 00:19 51.51408 12.55148 33130 ft 485 kts 32°
2026-05-08 00:19 51.57010 12.61188 33131 ft 485 kts 32°
2026-05-08 00:20 51.62571 12.67201 33141 ft 485 kts 32°
2026-05-08 00:20 51.68251 12.73042 33121 ft 484 kts 26°
2026-05-08 00:21 51.74310 12.77697 33137 ft 482 kts 23°
2026-05-08 00:21 51.80395 12.82238 33132 ft 482 kts 24°
2026-05-08 00:22 51.86471 12.86840 33140 ft 482 kts 24°
2026-05-08 00:22 51.92533 12.91489 33136 ft 482 kts 24°
2026-05-08 00:23 51.98594 12.96165 33142 ft 482 kts 24°
2026-05-08 00:23 52.04647 13.00848 33145 ft 482 kts 24°
2026-05-08 00:24 52.10694 13.05538 33137 ft 481 kts 24°
2026-05-08 00:24 52.16734 13.10235 33133 ft 481 kts 24°
2026-05-08 00:25 52.22768 13.14942 33137 ft 481 kts 24°
2026-05-08 00:25 52.28796 13.19658 33143 ft 480 kts 25°
2026-05-08 00:26 52.34777 13.24353 33131 ft 480 kts 25°
2026-05-08 00:26 52.40794 13.29089 33137 ft 480 kts 25°
2026-05-08 00:27 52.46807 13.33837 33138 ft 480 kts 25°
2026-05-08 00:27 52.52818 13.38598 33144 ft 479 kts 25°
2026-05-08 00:28 52.58819 13.43366 33146 ft 479 kts 25°
2026-05-08 00:28 52.64817 13.48146 33150 ft 479 kts 25°
2026-05-08 00:29 52.70814 13.52939 33149 ft 479 kts 25°
2026-05-08 00:29 52.76806 13.57743 33150 ft 479 kts 25°
2026-05-08 00:30 52.82797 13.62561 33168 ft 479 kts 25°
2026-05-08 00:30 52.88787 13.67394 33168 ft 479 kts 25°
2026-05-08 00:31 52.94776 13.72241 33155 ft 479 kts 25°
2026-05-08 00:31 53.00762 13.77101 33154 ft 479 kts 25°
2026-05-08 00:32 53.06735 13.81965 33179 ft 478 kts 26°
2026-05-08 00:32 53.12701 13.86838 33159 ft 477 kts 25°
2026-05-08 00:33 53.18893 13.90717 33177 ft 476 kts 14°
2026-05-08 00:33 53.25396 13.92616 33172 ft 474 kts
2026-05-08 00:34 53.31963 13.93712 33161 ft 474 kts
2026-05-08 00:34 53.38528 13.94808 33169 ft 474 kts
2026-05-08 00:35 53.45097 13.95962 33184 ft 475 kts
2026-05-08 00:35 53.51631 13.97139 33174 ft 476 kts
2026-05-08 00:36 53.58219 13.98334 33172 ft 477 kts
2026-05-08 00:36 53.64813 13.99530 33182 ft 477 kts
2026-05-08 00:37 53.71410 14.00730 33181 ft 477 kts
2026-05-08 00:38 53.81305 14.02536 33179 ft 477 kts
2026-05-08 00:38 53.87906 14.03746 33184 ft 477 kts
2026-05-08 00:39 53.94500 14.04957 33182 ft 477 kts
2026-05-08 00:39 54.01103 14.06175 33182 ft 477 kts
2026-05-08 00:40 54.07703 14.07397 33181 ft 477 kts
2026-05-08 00:40 54.14307 14.08623 33193 ft 477 kts
2026-05-08 00:41 54.20905 14.09853 33199 ft 477 kts
2026-05-08 00:41 54.27432 14.11741 33191 ft 475 kts 12°
2026-05-08 00:42 54.32811 14.13690 33189 ft 475 kts 12°
2026-05-08 00:42 54.39281 14.16029 33203 ft 475 kts 12°
2026-05-08 00:43 54.45758 14.18299 33197 ft 475 kts 12°
2026-05-08 00:43 54.52241 14.20545 33194 ft 475 kts 12°
2026-05-08 00:44 54.58723 14.22798 33193 ft 475 kts 12°
2026-05-08 00:44 54.65206 14.25063 33194 ft 475 kts 12°
2026-05-08 00:45 54.71681 14.27333 33209 ft 475 kts 12°
2026-05-08 00:45 54.78157 14.29611 33199 ft 474 kts 12°
2026-05-08 00:46 54.84620 14.31892 33194 ft 474 kts 12°
2026-05-08 00:46 54.90824 14.35372 33213 ft 469 kts 31°
2026-05-08 00:46 54.93468 14.38664 33183 ft 468 kts 42°
2026-05-08 00:47 54.95681 14.42792 33178 ft 465 kts 53°
2026-05-08 00:47 54.99592 14.51771 33197 ft 466 kts 53°
2026-05-08 00:48 55.03535 14.60767 33198 ft 468 kts 52°
2026-05-08 00:48 55.07515 14.69768 33177 ft 469 kts 52°
2026-05-08 00:49 55.11507 14.78777 33173 ft 469 kts 52°
2026-05-08 00:49 55.15494 14.87799 33177 ft 469 kts 52°
2026-05-08 00:50 55.19471 14.96834 33195 ft 468 kts 52°
2026-05-08 00:50 55.23439 15.05883 33203 ft 469 kts 53°
2026-05-08 00:51 55.27406 15.14969 33203 ft 470 kts 53°
2026-05-08 00:51 55.31379 15.24098 33217 ft 471 kts 53°
2026-05-08 00:52 55.35353 15.33266 33212 ft 472 kts 53°
2026-05-08 00:52 55.39316 15.42441 33205 ft 471 kts 53°
2026-05-08 00:53 55.43262 15.51610 33218 ft 469 kts 53°
2026-05-08 00:53 55.47188 15.60767 33217 ft 468 kts 53°
2026-05-08 00:54 55.51098 15.69924 33215 ft 467 kts 53°
2026-05-08 00:54 55.54998 15.79090 33212 ft 467 kts 53°
2026-05-08 00:55 55.58896 15.88284 33212 ft 468 kts 53°
2026-05-08 00:55 55.62806 15.97544 33222 ft 471 kts 53°
2026-05-08 00:56 55.66725 16.06858 33224 ft 473 kts 53°
2026-05-08 00:56 55.70648 16.16219 33221 ft 474 kts 53°
2026-05-08 00:57 55.74572 16.25615 33221 ft 474 kts 54°
2026-05-08 00:57 55.78479 16.35009 33213 ft 472 kts 54°
2026-05-08 00:58 55.82359 16.44374 33212 ft 469 kts 54°
2026-05-08 00:58 55.86214 16.53713 33218 ft 467 kts 54°
2026-05-08 00:59 55.90046 16.63032 33220 ft 466 kts 54°
2026-05-08 00:59 55.93864 16.72354 33224 ft 465 kts 54°
2026-05-08 01:00 55.97677 16.81699 33217 ft 465 kts 54°
2026-05-08 01:00 56.01449 16.90978 33221 ft 465 kts 54°
2026-05-08 01:01 56.05238 17.00335 33223 ft 464 kts 54°
2026-05-08 01:01 56.09015 17.09699 33228 ft 464 kts 54°
2026-05-08 01:02 56.12784 17.19077 33225 ft 464 kts 54°
2026-05-08 01:02 56.16548 17.28479 33225 ft 464 kts 54°
2026-05-08 01:03 56.20303 17.37897 33228 ft 464 kts 54°
2026-05-08 01:03 56.24067 17.47372 33228 ft 467 kts 54°
2026-05-08 01:04 56.27845 17.56918 33233 ft 470 kts 54°
2026-05-08 01:04 56.31632 17.66529 33228 ft 471 kts 55°
2026-05-08 01:05 56.35420 17.76178 33225 ft 472 kts 55°
2026-05-08 01:05 56.39200 17.85845 33218 ft 471 kts 55°
2026-05-08 01:06 56.42958 17.95493 33226 ft 469 kts 55°
2026-05-08 01:06 56.46700 18.05141 33225 ft 468 kts 55°
2026-05-08 01:07 56.50427 18.14785 33228 ft 467 kts 55°
2026-05-08 01:07 56.54143 18.24440 33222 ft 469 kts 55°
2026-05-08 01:08 56.57865 18.34150 33231 ft 475 kts 55°
2026-05-08 01:08 56.61614 18.43971 33222 ft 471 kts 55°
2026-05-08 01:09 56.65322 18.53721 33227 ft 467 kts 55°
2026-05-08 01:09 56.69007 18.63452 33235 ft 468 kts 55°
2026-05-08 01:10 56.72709 18.73266 33238 ft 472 kts 56°
2026-05-08 01:10 56.76428 18.83166 33235 ft 474 kts 56°
2026-05-08 01:11 56.80136 18.93077 33225 ft 473 kts 56°
2026-05-08 01:11 56.83829 19.02991 33231 ft 472 kts 56°
2026-05-08 01:12 56.87520 19.12934 33223 ft 474 kts 56°
2026-05-08 01:12 56.91224 19.22960 33248 ft 477 kts 56°
2026-05-08 01:13 56.94945 19.33071 33242 ft 480 kts 56°
2026-05-08 01:13 56.98679 19.43261 33232 ft 482 kts 56°
2026-05-08 01:14 57.02416 19.53503 33232 ft 483 kts 56°
2026-05-08 01:14 57.06145 19.63765 33235 ft 483 kts 56°
2026-05-08 01:15 57.09862 19.74039 33232 ft 482 kts 56°
2026-05-08 01:15 57.13561 19.84303 33235 ft 481 kts 56°
2026-05-08 01:16 57.17125 19.94608 33222 ft 480 kts 62°
2026-05-08 01:16 57.20080 20.05715 33232 ft 486 kts 64°
2026-05-08 01:17 57.22993 20.17031 33227 ft 490 kts 64°
2026-05-08 01:17 57.25933 20.28383 33227 ft 489 kts 64°
2026-05-08 01:18 57.28862 20.39653 33225 ft 484 kts 64°
2026-05-08 01:18 57.31763 20.50848 33225 ft 482 kts 64°
2026-05-08 01:19 57.34660 20.62089 33222 ft 487 kts 64°
2026-05-08 01:19 57.37580 20.73482 33226 ft 492 kts 64°
2026-05-08 01:20 57.40514 20.84985 33219 ft 493 kts 64°
2026-05-08 01:20 57.43431 20.96488 33219 ft 492 kts 64°
2026-05-08 01:21 57.46330 21.07978 33215 ft 491 kts 64°
2026-05-08 01:21 57.49215 21.19473 33212 ft 491 kts 65°
2026-05-08 01:22 57.52089 21.30981 33219 ft 491 kts 64°
2026-05-08 01:22 57.54956 21.42522 33218 ft 491 kts 64°
2026-05-08 01:23 57.57812 21.54080 33220 ft 491 kts 65°
2026-05-08 01:23 57.60664 21.65681 33225 ft 493 kts 65°
2026-05-08 01:24 57.63519 21.77361 33217 ft 496 kts 65°
2026-05-08 01:24 57.66378 21.89111 33216 ft 498 kts 65°
2026-05-08 01:25 57.69237 22.00930 33230 ft 500 kts 65°
2026-05-08 01:25 57.72058 22.12721 33217 ft 500 kts 65°
2026-05-08 01:26 57.74905 22.24704 33219 ft 500 kts 65°
2026-05-08 01:26 57.77703 22.36536 33216 ft 500 kts 65°
2026-05-08 01:27 57.80508 22.48457 33209 ft 501 kts 65°
2026-05-08 01:27 57.83310 22.60429 33219 ft 502 kts 65°
2026-05-08 01:28 57.86111 22.72462 33222 ft 504 kts 65°
2026-05-08 01:28 57.88447 22.82596 33216 ft 505 kts 66°
2026-05-08 01:29 57.91139 22.94816 33213 ft 506 kts 67°
2026-05-08 01:29 57.93772 23.07005 33209 ft 506 kts 67°
2026-05-08 01:30 57.96418 23.19275 33215 ft 506 kts 67°
2026-05-08 01:30 57.99064 23.31555 33209 ft 506 kts 67°
2026-05-08 01:31 58.01708 23.43887 33230 ft 508 kts 67°
2026-05-08 01:31 58.04355 23.56304 33240 ft 512 kts 67°
2026-05-08 01:31 58.05680 23.62552 33479 ft 513 kts 67°
2026-05-08 01:32 58.07002 23.68804 33868 ft 511 kts 67°
2026-05-08 01:32 58.08312 23.75023 34273 ft 508 kts 67°
2026-05-08 01:32 58.09616 23.81227 34586 ft 507 kts 67°
2026-05-08 01:32 58.10913 23.87421 34828 ft 507 kts 67°
2026-05-08 01:33 58.12211 23.93633 35032 ft 508 kts 67°
2026-05-08 01:33 58.14807 24.06120 35178 ft 511 kts 67°
2026-05-08 01:34 58.17403 24.18682 35217 ft 514 kts 68°
2026-05-08 01:34 58.20004 24.31347 35223 ft 517 kts 68°
2026-05-08 01:35 58.22605 24.44096 35214 ft 519 kts 68°
2026-05-08 01:35 58.25196 24.56878 35205 ft 518 kts 68°
2026-05-08 01:36 58.27768 24.69646 35206 ft 517 kts 68°
2026-05-08 01:36 58.30318 24.82387 35205 ft 515 kts 68°
2026-05-08 01:37 58.32833 24.95032 35218 ft 515 kts 68°
2026-05-08 01:37 58.35353 25.07780 35216 ft 515 kts 68°
2026-05-08 01:38 58.37863 25.20562 35215 ft 516 kts 68°
2026-05-08 01:38 58.40365 25.33386 35215 ft 517 kts 68°
2026-05-08 01:39 58.42857 25.46249 35214 ft 517 kts 68°
2026-05-08 01:39 58.45341 25.59153 35210 ft 518 kts 69°
2026-05-08 01:40 58.47817 25.72097 35208 ft 520 kts 68°
2026-05-08 01:40 58.50291 25.85105 35218 ft 521 kts 69°
2026-05-08 01:41 58.52755 25.98169 35207 ft 523 kts 69°
2026-05-08 01:41 58.55212 26.11292 35203 ft 524 kts 69°
2026-05-08 01:42 58.57662 26.24458 35216 ft 525 kts 69°
2026-05-08 01:42 58.60101 26.37651 35200 ft 525 kts 69°
2026-05-08 01:43 58.62529 26.50878 35209 ft 526 kts 69°
2026-05-08 01:43 58.64948 26.64147 35206 ft 527 kts 69°
2026-05-08 01:44 58.67355 26.77450 35195 ft 527 kts 70°
2026-05-08 01:44 58.69750 26.90779 35195 ft 528 kts 70°
2026-05-08 01:45 58.72135 27.04136 35188 ft 528 kts 70°
2026-05-08 01:45 58.74626 27.17314 35190 ft 526 kts 64°
2026-05-08 01:46 58.77870 27.29926 35191 ft 525 kts 61°
2026-05-08 01:46 58.81092 27.42566 35188 ft 525 kts 62°
2026-05-08 01:47 58.84289 27.55253 35191 ft 525 kts 62°
2026-05-08 01:47 58.87481 27.67948 35180 ft 525 kts 62°
2026-05-08 01:48 58.92251 27.87051 35197 ft 527 kts 62°
2026-05-08 01:48 58.95425 27.99861 35198 ft 528 kts 62°
2026-05-08 01:49 58.98593 28.12725 35187 ft 529 kts 63°
2026-05-08 01:49 59.01753 28.25627 35182 ft 530 kts 63°
2026-05-08 01:50 59.04904 28.38572 35182 ft 530 kts 63°
2026-05-08 01:50 59.08042 28.51544 35211 ft 531 kts 63°
2026-05-08 01:51 59.11176 28.64573 35160 ft 532 kts 63°
2026-05-08 01:51 59.14300 28.77630 35173 ft 532 kts 63°
2026-05-08 01:52 59.17413 28.90717 35160 ft 532 kts 63°
2026-05-08 01:52 59.20493 29.03739 35160 ft 533 kts 63°
2026-05-08 01:53 59.23585 29.16882 35182 ft 533 kts 63°
2026-05-08 01:53 59.26669 29.30080 35166 ft 534 kts 63°
2026-05-08 01:54 59.29743 29.43311 35158 ft 535 kts 64°
2026-05-08 01:54 59.32807 29.56584 35158 ft 535 kts 64°
2026-05-08 01:55 59.35857 29.69881 35135 ft 535 kts 64°
2026-05-08 01:55 59.38894 29.83199 35176 ft 535 kts 64°
2026-05-08 01:56 59.41919 29.96555 35141 ft 536 kts 64°
2026-05-08 01:56 59.44934 30.09944 35144 ft 536 kts 64°
2026-05-08 01:57 59.47936 30.23364 35144 ft 536 kts 64°
2026-05-08 01:57 59.50925 30.36809 35142 ft 536 kts 64°
2026-05-08 01:58 59.53881 30.50193 35142 ft 536 kts 65°
2026-05-08 01:58 59.56849 30.63717 35139 ft 538 kts 65°
2026-05-08 01:59 59.59808 30.77288 35118 ft 538 kts 65°
2026-05-08 01:59 59.62751 30.90876 35128 ft 538 kts 65°
2026-05-08 02:00 59.65683 31.04490 35133 ft 538 kts 65°
2026-05-08 02:00 59.68429 31.18266 35128 ft 539 kts 72°
2026-05-08 02:01 59.70198 31.32714 35130 ft 541 kts 77°
2026-05-08 02:01 59.71807 31.47269 35130 ft 541 kts 77°
2026-05-08 02:02 59.73462 31.61825 35129 ft 541 kts 77°
2026-05-08 02:02 59.75134 31.76383 35102 ft 541 kts 77°
2026-05-08 02:03 59.76786 31.90947 35123 ft 541 kts 77°
2026-05-08 02:03 59.78421 32.05520 35128 ft 541 kts 77°
2026-05-08 02:04 59.80069 32.20104 35121 ft 542 kts 77°
2026-05-08 02:04 59.81723 32.34708 35120 ft 542 kts 75°
2026-05-08 02:05 59.83728 32.49030 35123 ft 541 kts 73°
2026-05-08 02:05 59.85849 32.63389 35120 ft 541 kts 73°
2026-05-08 02:06 59.87923 32.77793 35117 ft 541 kts 73°
2026-05-08 02:06 59.89955 32.92230 35145 ft 542 kts 73°
2026-05-08 02:07 59.91978 33.06711 35118 ft 543 kts 74°
2026-05-08 02:07 59.93529 33.21432 35107 ft 543 kts 84°
2026-05-08 02:08 59.93859 33.36441 35111 ft 542 kts 90°
2026-05-08 02:08 59.93966 33.51472 35104 ft 542 kts 90°
2026-05-08 02:09 59.94103 33.66510 35093 ft 542 kts 90°
2026-05-08 02:09 59.94260 33.81556 35094 ft 542 kts 90°
2026-05-08 02:10 59.94407 33.96600 35122 ft 543 kts 90°
2026-05-08 02:10 59.94532 34.11661 35096 ft 543 kts 90°
2026-05-08 02:11 59.94637 34.26617 35090 ft 543 kts 90°
2026-05-08 02:11 59.94726 34.41668 35086 ft 542 kts 91°
2026-05-08 02:12 59.94797 34.56715 35088 ft 542 kts 91°
2026-05-08 02:12 59.94851 34.71759 35083 ft 542 kts 91°
2026-05-08 02:13 59.94889 34.86796 35084 ft 542 kts 91°
2026-05-08 02:13 59.94910 35.01829 35085 ft 542 kts 91°
2026-05-08 02:14 59.94915 35.16851 35064 ft 542 kts 91°
2026-05-08 02:14 59.95160 35.31869 35078 ft 543 kts 85°
2026-05-08 02:15 59.96565 35.46658 35081 ft 543 kts 76°
2026-05-08 02:15 59.98356 35.61330 35077 ft 545 kts 76°
2026-05-08 02:16 60.00098 35.76068 35074 ft 545 kts 77°
2026-05-08 02:16 60.01783 35.90855 35074 ft 546 kts 77°
2026-05-08 02:17 60.03434 36.05579 35075 ft 547 kts 77°
2026-05-08 02:17 60.05084 36.20414 35040 ft 546 kts 78°
2026-05-08 02:18 60.06717 36.35243 35062 ft 546 kts 78°
2026-05-08 02:18 60.08334 36.50090 35062 ft 546 kts 78°
2026-05-08 02:19 60.09936 36.64948 35063 ft 546 kts 78°
2026-05-08 02:19 60.11520 36.79824 35048 ft 546 kts 78°
2026-05-08 02:20 60.13080 36.94730 35049 ft 546 kts 78°
2026-05-08 02:20 60.14363 37.07134 35051 ft 546 kts 78°
2026-05-08 02:21 60.15903 37.22161 35009 ft 546 kts 79°
2026-05-08 02:21 60.17406 37.36993 35039 ft 546 kts 79°
2026-05-08 02:22 60.18903 37.51938 35046 ft 546 kts 79°
2026-05-08 02:22 60.20385 37.66927 35066 ft 547 kts 79°
2026-05-08 02:23 60.21853 37.81954 35039 ft 548 kts 79°
2026-05-08 02:23 60.23304 37.97003 35031 ft 548 kts 79°
2026-05-08 02:24 60.24740 38.12059 35036 ft 548 kts 79°
2026-05-08 02:24 60.26160 38.27121 35016 ft 547 kts 79°
2026-05-08 02:25 60.27579 38.42169 35027 ft 547 kts 79°
2026-05-08 02:25 60.28987 38.57234 35050 ft 548 kts 79°
2026-05-08 02:26 60.30369 38.72238 35035 ft 548 kts 80°
2026-05-08 02:26 60.31743 38.87360 35027 ft 548 kts 80°
2026-05-08 02:27 60.33097 39.02485 35029 ft 548 kts 80°
2026-05-08 02:27 60.34434 39.17618 35028 ft 547 kts 80°
2026-05-08 02:28 60.35753 39.32746 35001 ft 546 kts 81°
2026-05-08 02:28 60.37054 39.47876 35022 ft 547 kts 81°
2026-05-08 02:29 60.38338 39.63035 35032 ft 547 kts 81°
2026-05-08 02:29 60.39606 39.78208 35021 ft 547 kts 81°
2026-05-08 02:30 60.40856 39.93387 35020 ft 547 kts 81°
2026-05-08 02:30 60.42090 40.08588 35019 ft 547 kts 81°
2026-05-08 02:31 60.43306 40.23806 35052 ft 548 kts 81°
2026-05-08 02:31 60.44506 40.39038 35014 ft 547 kts 82°
2026-05-08 02:32 60.45687 40.54272 35011 ft 547 kts 82°
2026-05-08 02:32 60.46851 40.69514 35017 ft 547 kts 82°
2026-05-08 02:33 60.47998 40.84768 35017 ft 547 kts 82°
2026-05-08 02:33 60.49130 41.00041 35008 ft 547 kts 82°
2026-05-08 02:34 60.50223 41.15319 35021 ft 548 kts 82°
2026-05-08 02:34 60.51289 41.30621 35018 ft 548 kts 83°
2026-05-08 02:35 60.52340 41.45917 35005 ft 546 kts 83°
2026-05-08 02:35 60.53377 41.61216 35007 ft 547 kts 83°
2026-05-08 02:36 60.54396 41.76526 35010 ft 547 kts 83°
2026-05-08 02:36 60.55391 41.91752 35010 ft 548 kts 83°
2026-05-08 02:37 60.56379 42.07109 35005 ft 548 kts 83°
2026-05-08 02:37 60.57345 42.22478 35005 ft 548 kts 83°
2026-05-08 02:38 60.58285 42.37841 34953 ft 547 kts 84°
2026-05-08 02:38 60.59206 42.53195 34998 ft 546 kts 84°
2026-05-08 02:39 60.60112 42.68552 35001 ft 546 kts 84°
2026-05-08 02:39 60.60999 42.83912 35034 ft 547 kts 84°
2026-05-08 02:40 60.61872 42.99309 35011 ft 547 kts 84°
2026-05-08 02:40 60.62726 43.14713 35000 ft 548 kts 84°
2026-05-08 02:41 60.63562 43.30125 35014 ft 547 kts 84°
2026-05-08 02:41 60.64380 43.45534 34946 ft 547 kts 84°
2026-05-08 02:42 60.65180 43.60933 35004 ft 546 kts 85°
2026-05-08 02:42 60.65964 43.76336 35004 ft 546 kts 85°
2026-05-08 02:43 60.66732 43.91765 35010 ft 547 kts 85°
2026-05-08 02:43 60.67491 44.07211 35003 ft 548 kts 85°
2026-05-08 02:44 60.68234 44.22681 35006 ft 548 kts 85°
2026-05-08 02:44 60.68959 44.38160 35003 ft 548 kts 85°
2026-05-08 02:45 60.69665 44.53642 35033 ft 548 kts 85°
2026-05-08 02:45 60.70354 44.69149 35003 ft 549 kts 85°
2026-05-08 02:46 60.71026 44.84658 35003 ft 548 kts 86°
2026-05-08 02:46 60.71679 45.00152 35001 ft 547 kts 86°
2026-05-08 02:47 60.72318 45.15629 35013 ft 546 kts 86°
2026-05-08 02:47 60.72965 45.31092 35010 ft 546 kts 86°
2026-05-08 02:48 60.73597 45.46548 35037 ft 546 kts 86°
2026-05-08 02:48 60.74197 45.61915 34992 ft 546 kts 86°
2026-05-08 02:49 60.74784 45.77381 35010 ft 546 kts 86°
2026-05-08 02:49 60.75355 45.92863 35021 ft 547 kts 86°
2026-05-08 02:50 60.75910 46.08386 35019 ft 547 kts 86°
2026-05-08 02:50 60.76449 46.23916 35017 ft 548 kts 86°
2026-05-08 02:51 60.76939 46.39484 35036 ft 549 kts 88°
2026-05-08 02:51 60.77301 46.55076 35031 ft 549 kts 88°
2026-05-08 02:52 60.77672 46.70675 35001 ft 548 kts 88°
2026-05-08 02:52 60.78063 46.86244 35015 ft 548 kts 88°
2026-05-08 02:53 60.78438 47.01801 35025 ft 547 kts 88°
2026-05-08 02:53 60.78789 47.17367 35023 ft 547 kts 88°
2026-05-08 02:54 60.79124 47.32938 35024 ft 548 kts 88°
2026-05-08 02:54 60.79437 47.48526 35020 ft 548 kts 88°
2026-05-08 02:55 60.79875 47.71905 34972 ft 548 kts 88°
2026-05-08 02:56 60.80143 47.87356 35024 ft 547 kts 88°
2026-05-08 02:56 60.80395 48.02917 35024 ft 547 kts 88°
2026-05-08 02:57 60.80630 48.18495 35036 ft 548 kts 89°
2026-05-08 02:57 60.80849 48.34096 35030 ft 548 kts 89°
2026-05-08 02:58 60.81050 48.49694 35031 ft 548 kts 89°
2026-05-08 02:58 60.81238 48.65285 35032 ft 547 kts 89°
2026-05-08 02:59 60.81408 48.80863 34999 ft 546 kts 89°
2026-05-08 02:59 60.81560 48.96406 35030 ft 545 kts 89°
2026-05-08 03:00 60.81695 49.11960 35039 ft 546 kts 89°
2026-05-08 03:00 60.81812 49.27506 35042 ft 546 kts 89°
2026-05-08 03:01 60.81910 49.43055 35044 ft 546 kts 89°
2026-05-08 03:01 60.81990 49.58593 35049 ft 545 kts 89°
2026-05-08 03:02 60.82052 49.74138 35049 ft 545 kts 90°
2026-05-08 03:02 60.82099 49.89676 35057 ft 545 kts 90°
2026-05-08 03:03 60.82131 50.05186 35050 ft 544 kts 90°
2026-05-08 03:03 60.82151 50.20694 35051 ft 544 kts 90°
2026-05-08 03:04 60.82154 50.36182 35058 ft 544 kts 90°
2026-05-08 03:04 60.82139 50.51576 35055 ft 544 kts 90°
2026-05-08 03:05 60.82106 50.67064 35055 ft 544 kts 90°
2026-05-08 03:05 60.82054 50.82558 35065 ft 544 kts 90°
2026-05-08 03:06 60.81985 50.98066 35054 ft 544 kts 90°
2026-05-08 03:06 60.81899 51.13560 35061 ft 544 kts 90°
2026-05-08 03:07 60.81797 51.29044 35071 ft 544 kts 90°
2026-05-08 03:07 60.81688 51.44525 35065 ft 544 kts 90°
2026-05-08 03:08 60.81571 51.60022 35076 ft 544 kts 90°
2026-05-08 03:08 60.81437 51.75524 35086 ft 545 kts 91°
2026-05-08 03:09 60.81283 51.91034 35079 ft 545 kts 91°
2026-05-08 03:09 60.81142 52.03912 35076 ft 542 kts 91°
2026-05-08 03:10 60.80956 52.19304 35073 ft 539 kts 91°
2026-05-08 03:10 60.80753 52.34609 35088 ft 536 kts 92°
2026-05-08 03:11 60.80534 52.49847 35108 ft 534 kts 92°
2026-05-08 03:11 60.80299 52.65046 35093 ft 534 kts 92°
2026-05-08 03:12 60.80047 52.80232 35113 ft 534 kts 92°
2026-05-08 03:12 60.79777 52.95435 35118 ft 535 kts 92°
2026-05-08 03:13 60.79490 53.10655 35087 ft 535 kts 92°
2026-05-08 03:13 60.79185 53.25883 35097 ft 535 kts 92°
2026-05-08 03:14 60.78864 53.41102 35143 ft 535 kts 93°
2026-05-08 03:14 60.78527 53.56345 35119 ft 536 kts 93°
2026-05-08 03:15 60.78164 53.71585 35106 ft 536 kts 94°
2026-05-08 03:15 60.77768 53.86823 35116 ft 536 kts 94°
2026-05-08 03:16 60.77356 54.02042 35116 ft 536 kts 94°
2026-05-08 03:16 60.76929 54.17250 35084 ft 535 kts 94°
2026-05-08 03:17 60.76489 54.32414 35140 ft 534 kts 94°
2026-05-08 03:17 60.76034 54.47479 35127 ft 534 kts 94°
2026-05-08 03:18 60.75558 54.62644 35120 ft 534 kts 94°
2026-05-08 03:18 60.75066 54.77801 35117 ft 534 kts 95°
2026-05-08 03:19 60.74556 54.92956 35125 ft 534 kts 95°
2026-05-08 03:19 60.74029 55.08111 35123 ft 534 kts 95°
2026-05-08 03:20 60.73485 55.23259 35142 ft 535 kts 95°
2026-05-08 03:20 60.72923 55.38434 35133 ft 536 kts 95°
2026-05-08 03:21 60.72344 55.53615 35134 ft 536 kts 95°
2026-05-08 03:21 60.71749 55.68809 35134 ft 537 kts 95°
2026-05-08 03:22 60.71119 55.83998 35128 ft 537 kts 96°
2026-05-08 03:22 60.70455 55.99185 35137 ft 537 kts 96°
2026-05-08 03:23 60.69778 56.14369 35138 ft 538 kts 96°
2026-05-08 03:23 60.69086 56.29566 35122 ft 537 kts 96°
2026-05-08 03:24 60.68379 56.44749 35124 ft 537 kts 96°
2026-05-08 03:24 60.67654 56.59924 35136 ft 537 kts 96°
2026-05-08 03:25 60.66916 56.74991 35125 ft 538 kts 96°
2026-05-08 03:25 60.66157 56.90151 35124 ft 538 kts 97°
2026-05-08 03:26 60.65380 57.05323 35131 ft 539 kts 97°
2026-05-08 03:26 60.64584 57.20510 35131 ft 539 kts 97°
2026-05-08 03:27 60.63773 57.35694 35116 ft 539 kts 97°
2026-05-08 03:27 60.62947 57.50848 35129 ft 538 kts 97°
2026-05-08 03:28 60.62122 57.65997 35135 ft 538 kts 97°
2026-05-08 03:28 60.61290 57.81134 35136 ft 538 kts 97°
2026-05-08 03:29 60.60438 57.96277 35129 ft 539 kts 97°
2026-05-08 03:29 60.59565 58.11435 35131 ft 540 kts 97°
2026-05-08 03:30 60.58222 58.34184 35121 ft 540 kts 98°
2026-05-08 03:31 60.56377 58.64394 35122 ft 537 kts 98°
2026-05-08 03:32 60.54950 58.87016 35141 ft 538 kts 98°
2026-05-08 03:32 60.53982 59.02003 35131 ft 539 kts 98°
2026-05-08 03:33 60.52990 59.17096 35140 ft 539 kts 98°
2026-05-08 03:33 60.51982 59.32178 35149 ft 539 kts 98°
2026-05-08 03:34 60.50956 59.47252 35129 ft 538 kts 99°
2026-05-08 03:34 60.49915 59.62283 35157 ft 538 kts 99°
2026-05-08 03:35 60.48857 59.77312 35158 ft 539 kts 99°
2026-05-08 03:35 60.47781 59.92350 35156 ft 539 kts 99°
2026-05-08 03:36 60.46688 60.07376 35160 ft 539 kts 99°
2026-05-08 03:36 60.45578 60.22394 35159 ft 539 kts 99°
2026-05-08 03:37 60.44450 60.37415 35155 ft 539 kts 99°
2026-05-08 03:37 60.43305 60.52422 35138 ft 539 kts 99°
2026-05-08 03:38 60.42144 60.67424 35148 ft 539 kts 100°
2026-05-08 03:38 60.40966 60.82408 35157 ft 539 kts 100°
2026-05-08 03:39 60.39770 60.97397 35148 ft 540 kts 100°
2026-05-08 03:39 60.38557 61.12376 35143 ft 540 kts 100°
2026-05-08 03:40 60.37327 61.27346 35149 ft 540 kts 101°
2026-05-08 03:40 60.36081 61.42293 35144 ft 540 kts 101°
2026-05-08 03:41 60.34818 61.57231 35145 ft 539 kts 101°
2026-05-08 03:41 60.33542 61.72124 35138 ft 538 kts 101°
2026-05-08 03:42 60.32250 61.86996 35142 ft 538 kts 101°
2026-05-08 03:42 60.30944 62.01845 35140 ft 537 kts 101°
2026-05-08 03:43 60.29625 62.16680 35152 ft 538 kts 101°
2026-05-08 03:43 60.28316 62.31445 35143 ft 539 kts 101°
2026-05-08 03:44 60.26987 62.46324 35141 ft 540 kts 101°
2026-05-08 03:44 60.25637 62.61203 35135 ft 539 kts 101°
2026-05-08 03:45 60.24271 62.76050 35136 ft 539 kts 101°
2026-05-08 03:45 60.22888 62.90885 35143 ft 539 kts 102°
2026-05-08 03:46 60.21491 63.05704 35139 ft 540 kts 102°
2026-05-08 03:46 60.20073 63.20537 35138 ft 540 kts 102°
2026-05-08 03:47 60.18630 63.35368 35132 ft 541 kts 102°
2026-05-08 03:47 60.17171 63.50194 35134 ft 541 kts 102°
2026-05-08 03:48 60.15699 63.64992 35127 ft 540 kts 102°
2026-05-08 03:48 60.14218 63.79742 35125 ft 539 kts 102°
2026-05-08 03:49 60.12941 63.94565 35131 ft 540 kts 95°
2026-05-08 03:49 60.12697 64.09603 35134 ft 540 kts 90°
2026-05-08 03:50 60.12585 64.24668 35129 ft 540 kts 90°
2026-05-08 03:50 60.12401 64.39639 35128 ft 541 kts 91°
2026-05-08 03:51 60.12171 64.54725 35132 ft 541 kts 91°
2026-05-08 03:51 60.11927 64.69831 35138 ft 543 kts 91°
2026-05-08 03:52 60.11669 64.84960 35095 ft 543 kts 92°
2026-05-08 03:52 60.11109 65.00037 35121 ft 542 kts 95°
2026-05-08 03:53 60.10347 65.15072 35126 ft 541 kts 96°
2026-05-08 03:53 60.09606 65.30076 35127 ft 541 kts 95°
2026-05-08 03:54 60.08898 65.45083 35135 ft 541 kts 95°
2026-05-08 03:54 60.08185 65.60096 35129 ft 542 kts 95°
2026-05-08 03:55 60.07451 65.75115 35125 ft 542 kts 95°
2026-05-08 03:55 60.06696 65.90134 35123 ft 542 kts 96°
2026-05-08 03:56 60.05922 66.05156 35123 ft 543 kts 96°
2026-05-08 03:56 60.05131 66.20188 35126 ft 544 kts 96°
2026-05-08 03:57 60.04321 66.35254 35127 ft 545 kts 96°
2026-05-08 03:57 60.03634 66.47782 35119 ft 545 kts 96°
2026-05-08 03:58 60.02656 66.65303 35122 ft 546 kts 96°
2026-05-08 03:58 60.01789 66.80382 35119 ft 546 kts 96°
2026-05-08 03:59 60.00903 66.95455 35125 ft 547 kts 96°
2026-05-08 03:59 60.00148 67.08101 35120 ft 547 kts 96°
2026-05-08 04:00 59.99232 67.23193 35115 ft 547 kts 96°
2026-05-08 04:00 59.98299 67.38274 35079 ft 547 kts 97°
2026-05-08 04:01 59.97351 67.53308 35111 ft 545 kts 97°
2026-05-08 04:01 59.96393 67.68219 35131 ft 545 kts 97°
2026-05-08 04:02 59.95411 67.83238 35114 ft 546 kts 97°
2026-05-08 04:02 59.94412 67.98254 35108 ft 546 kts 97°
2026-05-08 04:03 59.93394 68.13275 35110 ft 547 kts 97°
2026-05-08 04:03 59.91839 68.35800 35110 ft 547 kts 97°
2026-05-08 04:04 59.90767 68.50821 35100 ft 548 kts 98°
2026-05-08 04:04 59.89672 68.65857 35081 ft 549 kts 98°
2026-05-08 04:05 59.88563 68.80876 35103 ft 548 kts 98°
2026-05-08 04:05 59.87440 68.95883 35108 ft 548 kts 98°
2026-05-08 04:06 59.86300 69.10870 35104 ft 548 kts 98°
2026-05-08 04:06 59.85144 69.25846 35105 ft 548 kts 98°
2026-05-08 04:07 59.83970 69.40816 35105 ft 548 kts 99°
2026-05-08 04:07 59.82782 69.55758 35107 ft 547 kts 99°
2026-05-08 04:08 59.81050 69.70456 35110 ft 546 kts 108°
2026-05-08 04:08 59.78839 69.84877 35115 ft 546 kts 108°
2026-05-08 04:09 59.76631 69.99180 35111 ft 545 kts 108°
2026-05-08 04:09 59.74433 70.13579 35109 ft 545 kts 108°
2026-05-08 04:10 59.72240 70.27966 35117 ft 545 kts 108°
2026-05-08 04:10 59.70033 70.42330 35116 ft 545 kts 108°
2026-05-08 04:11 59.67806 70.56679 35121 ft 545 kts 108°
2026-05-08 04:11 59.65562 70.71004 35119 ft 545 kts 109°
2026-05-08 04:12 59.63301 70.85317 35065 ft 545 kts 109°
2026-05-08 04:12 59.61029 70.99591 35120 ft 544 kts 109°
2026-05-08 04:13 59.58745 71.13821 35121 ft 544 kts 109°
2026-05-08 04:13 59.56446 71.28024 35120 ft 543 kts 110°
2026-05-08 04:14 59.54132 71.42209 35113 ft 543 kts 110°
2026-05-08 04:14 59.51805 71.56361 35129 ft 543 kts 110°
2026-05-08 04:15 59.49459 71.70513 35119 ft 544 kts 110°
2026-05-08 04:15 59.47099 71.84644 35088 ft 543 kts 110°
2026-05-08 04:16 59.44727 71.98730 35112 ft 543 kts 110°
2026-05-08 04:16 59.42339 72.12803 35119 ft 543 kts 110°
2026-05-08 04:17 59.39950 72.26777 35117 ft 543 kts 110°
2026-05-08 04:17 59.37528 72.40832 35123 ft 544 kts 111°
2026-05-08 04:18 59.35089 72.54879 35117 ft 545 kts 111°
2026-05-08 04:18 59.32632 72.68925 35114 ft 545 kts 111°
2026-05-08 04:19 59.30160 72.82944 35110 ft 544 kts 111°
2026-05-08 04:19 59.27680 72.96910 35114 ft 543 kts 111°
2026-05-08 04:20 59.25186 73.10846 35131 ft 543 kts 111°
2026-05-08 04:20 59.22676 73.24773 35118 ft 543 kts 111°
2026-05-08 04:21 59.20151 73.38673 35117 ft 543 kts 111°
2026-05-08 04:21 59.17612 73.52553 35116 ft 543 kts 112°
2026-05-08 04:22 59.15060 73.66407 35118 ft 543 kts 112°
2026-05-08 04:22 59.12498 73.80212 35117 ft 541 kts 112°
2026-05-08 04:23 59.09927 73.93979 35115 ft 541 kts 112°
2026-05-08 04:23 59.07345 74.07708 35120 ft 540 kts 112°
2026-05-08 04:24 59.04783 74.21321 35118 ft 540 kts 112°
2026-05-08 04:24 59.02193 74.35007 35116 ft 540 kts 112°
2026-05-08 04:25 58.99558 74.48852 35117 ft 540 kts 112°
2026-05-08 04:25 58.96941 74.62497 35080 ft 540 kts 112°
2026-05-08 04:26 58.94312 74.76098 35111 ft 538 kts 112°
2026-05-08 04:26 58.91673 74.89654 35112 ft 537 kts 113°
2026-05-08 04:27 58.89027 75.03154 35113 ft 536 kts 113°
2026-05-08 04:27 58.86370 75.16620 35111 ft 536 kts 113°
2026-05-08 04:28 58.83704 75.30040 35104 ft 535 kts 113°
2026-05-08 04:28 58.81021 75.43453 35105 ft 536 kts 113°
2026-05-08 04:29 58.78323 75.56849 35073 ft 535 kts 113°
2026-05-08 04:29 58.75623 75.70178 35091 ft 533 kts 113°
2026-05-08 04:30 58.72913 75.83456 35098 ft 532 kts 114°
2026-05-08 04:30 58.70196 75.96687 35096 ft 531 kts 114°
2026-05-08 04:31 58.67487 76.09793 35106 ft 531 kts 114°
2026-05-08 04:31 58.64747 76.22964 35096 ft 531 kts 114°
2026-05-08 04:32 58.61993 76.36120 35092 ft 531 kts 114°
2026-05-08 04:32 58.59227 76.49255 35094 ft 531 kts 115°
2026-05-08 04:33 58.56146 76.62084 35088 ft 530 kts 118°
2026-05-08 04:33 58.52913 76.74759 35092 ft 530 kts 119°
2026-05-08 04:34 58.49673 76.87432 35088 ft 531 kts 118°
2026-05-08 04:34 58.46437 77.00118 35086 ft 531 kts 118°
2026-05-08 04:35 58.43198 77.12785 35083 ft 531 kts 118°
2026-05-08 04:35 58.39945 77.25433 35037 ft 531 kts 119°
2026-05-08 04:36 58.36686 77.38025 35072 ft 529 kts 119°
2026-05-08 04:36 58.33421 77.50565 35085 ft 528 kts 119°
2026-05-08 04:37 58.30145 77.63080 35073 ft 528 kts 119°
2026-05-08 04:37 58.26880 77.75480 35074 ft 528 kts 119°
2026-05-08 04:38 58.23580 77.87949 35069 ft 528 kts 120°
2026-05-08 04:38 58.20267 78.00393 35071 ft 528 kts 120°
2026-05-08 04:39 58.16950 78.12791 35060 ft 526 kts 120°
2026-05-08 04:39 58.13635 78.25110 35071 ft 524 kts 120°
2026-05-08 04:40 58.10317 78.37371 35061 ft 523 kts 120°
2026-05-08 04:40 58.06993 78.49589 35061 ft 522 kts 120°
2026-05-08 04:41 58.03661 78.61772 35060 ft 522 kts 120°
2026-05-08 04:41 58.00317 78.73933 35058 ft 522 kts 120°
2026-05-08 04:42 57.96982 78.85996 35039 ft 522 kts 120°
2026-05-08 04:42 57.93622 78.98091 35052 ft 521 kts 120°
2026-05-08 04:43 57.90249 79.10162 35049 ft 521 kts 120°
2026-05-08 04:43 57.86869 79.22199 35043 ft 521 kts 120°
2026-05-08 04:44 57.83478 79.34212 35043 ft 520 kts 120°
2026-05-08 04:44 57.80078 79.46193 35036 ft 520 kts 121°
2026-05-08 04:45 57.76667 79.58154 35002 ft 520 kts 120°
2026-05-08 04:45 57.73259 79.70054 35038 ft 518 kts 121°
2026-05-08 04:46 57.70405 79.79880 35024 ft 517 kts 121°
2026-05-08 04:46 57.66938 79.91621 35027 ft 515 kts 121°
2026-05-08 04:47 57.63466 80.03315 35021 ft 515 kts 121°
2026-05-08 04:47 57.59995 80.14981 35019 ft 514 kts 121°
2026-05-08 04:48 57.56515 80.26629 35021 ft 514 kts 121°
2026-05-08 04:48 57.53028 80.38249 35018 ft 513 kts 121°
2026-05-08 04:49 57.49536 80.49822 35008 ft 512 kts 121°
2026-05-08 04:49 57.46041 80.61347 35005 ft 512 kts 121°
2026-05-08 04:50 57.42539 80.72841 35001 ft 511 kts 122°
2026-05-08 04:50 57.39030 80.84300 35002 ft 511 kts 122°
2026-05-08 04:51 57.35512 80.95731 34992 ft 511 kts 122°
2026-05-08 04:51 57.31984 81.07144 34981 ft 510 kts 122°
2026-05-08 04:52 57.28452 81.18513 34978 ft 509 kts 122°
2026-05-08 04:52 57.24913 81.29847 34982 ft 509 kts 122°
2026-05-08 04:53 57.21371 81.41140 34985 ft 508 kts 122°
2026-05-08 04:53 57.17820 81.52405 34967 ft 508 kts 122°
2026-05-08 04:54 57.14259 81.63651 34972 ft 508 kts 122°
2026-05-08 04:54 57.10715 81.74788 34950 ft 508 kts 122°
2026-05-08 04:55 57.07139 81.85978 34956 ft 507 kts 122°
2026-05-08 04:55 57.03554 81.97147 34958 ft 507 kts 122°
2026-05-08 04:56 57.00003 82.08341 34954 ft 508 kts 120°
2026-05-08 04:56 56.96761 82.19868 34957 ft 509 kts 118°
2026-05-08 04:57 56.93552 82.31421 34952 ft 509 kts 118°
2026-05-08 04:57 56.90320 82.42945 34947 ft 509 kts 119°
2026-05-08 04:58 56.87062 82.54443 34928 ft 509 kts 119°
2026-05-08 04:58 56.83789 82.65915 34928 ft 509 kts 119°
2026-05-08 04:59 56.80507 82.77364 34941 ft 509 kts 119°
2026-05-08 04:59 56.77215 82.88796 34943 ft 509 kts 119°
2026-05-08 05:00 56.73914 83.00204 34937 ft 509 kts 120°
2026-05-08 05:00 56.70598 83.11606 34943 ft 509 kts 120°
2026-05-08 05:01 56.67273 83.22987 34924 ft 510 kts 120°
2026-05-08 05:01 56.63935 83.34353 34933 ft 510 kts 120°
2026-05-08 05:02 56.60583 83.45711 34931 ft 510 kts 120°
2026-05-08 05:02 56.57242 83.56979 34933 ft 511 kts 120°
2026-05-08 05:03 56.53865 83.68314 34932 ft 511 kts 120°
2026-05-08 05:03 56.50475 83.79637 34931 ft 511 kts 120°
2026-05-08 05:04 56.47074 83.90942 34932 ft 511 kts 121°
2026-05-08 05:04 56.43664 84.02223 34932 ft 511 kts 121°
2026-05-08 05:05 56.40246 84.13475 34932 ft 511 kts 121°
2026-05-08 05:05 56.36817 84.24713 34939 ft 511 kts 121°
2026-05-08 05:06 56.33377 84.35930 34931 ft 511 kts 121°
2026-05-08 05:06 56.29927 84.47129 34933 ft 511 kts 121°
2026-05-08 05:07 56.26467 84.58306 34927 ft 511 kts 121°
2026-05-08 05:07 56.22995 84.69469 34931 ft 511 kts 121°
2026-05-08 05:08 56.19513 84.80615 34902 ft 512 kts 122°
2026-05-08 05:08 56.16013 84.91762 34919 ft 514 kts 122°
2026-05-08 05:09 56.12485 85.02943 34938 ft 516 kts 122°
2026-05-08 05:09 56.08954 85.14085 34942 ft 519 kts 122°
2026-05-08 05:10 56.03584 85.30939 34936 ft 520 kts 122°
2026-05-08 05:11 55.99988 85.42158 34939 ft 520 kts 123°
2026-05-08 05:11 55.96387 85.53346 34909 ft 519 kts 123°
2026-05-08 05:12 55.92738 85.64447 34933 ft 518 kts 124°
2026-05-08 05:12 55.89012 85.75440 34942 ft 518 kts 124°
2026-05-08 05:13 55.85283 85.86425 34938 ft 518 kts 124°
2026-05-08 05:13 55.81557 85.97405 34950 ft 518 kts 124°
2026-05-08 05:14 55.77820 86.08365 34944 ft 519 kts 124°
2026-05-08 05:14 55.74052 86.19306 34948 ft 519 kts 124°
2026-05-08 05:15 55.70270 86.30231 34938 ft 520 kts 125°
2026-05-08 05:15 55.66481 86.41139 34949 ft 520 kts 125°
2026-05-08 05:16 55.62683 86.52031 34952 ft 520 kts 125°
2026-05-08 05:16 55.58902 86.62825 34954 ft 520 kts 125°
2026-05-08 05:17 55.55084 86.73678 34952 ft 520 kts 125°
2026-05-08 05:17 55.51253 86.84518 34956 ft 521 kts 125°
2026-05-08 05:18 55.47407 86.95350 34937 ft 521 kts 125°
2026-05-08 05:18 55.43554 87.06156 34954 ft 521 kts 125°
2026-05-08 05:19 55.39691 87.16941 34960 ft 521 kts 125°
2026-05-08 05:19 55.35819 87.27705 34959 ft 521 kts 125°
2026-05-08 05:20 55.31932 87.38464 34970 ft 522 kts 125°
2026-05-08 05:20 55.28035 87.49203 34968 ft 522 kts 126°
2026-05-08 05:21 55.24123 87.59937 34943 ft 522 kts 126°
2026-05-08 05:21 55.20206 87.70644 34969 ft 522 kts 126°
2026-05-08 05:22 55.16278 87.81329 34979 ft 522 kts 126°
2026-05-08 05:22 55.12350 87.91901 34977 ft 522 kts 126°
2026-05-08 05:23 55.08380 88.02524 34964 ft 523 kts 126°
2026-05-08 05:23 55.04373 88.13217 34984 ft 523 kts 126°
2026-05-08 05:24 55.00412 88.23745 34961 ft 523 kts 126°
2026-05-08 05:24 54.96415 88.34326 34966 ft 523 kts 126°
2026-05-08 05:25 54.92407 88.44889 34976 ft 523 kts 126°
2026-05-08 05:25 54.88390 88.55433 34974 ft 524 kts 126°
2026-05-08 05:26 54.84361 88.65970 34976 ft 524 kts 126°
2026-05-08 05:26 54.80320 88.76489 34979 ft 524 kts 126°
2026-05-08 05:27 54.76278 88.87005 34971 ft 525 kts 126°
2026-05-08 05:27 54.72231 88.97520 34961 ft 525 kts 126°
2026-05-08 05:28 54.68159 89.08039 35274 ft 526 kts 126°
2026-05-08 05:28 54.66127 89.13278 35698 ft 523 kts 126°
2026-05-08 05:28 54.64104 89.18486 36093 ft 521 kts 126°
2026-05-08 05:28 54.62088 89.23663 36484 ft 518 kts 126°
2026-05-08 05:29 54.60076 89.28816 36855 ft 517 kts 126°
2026-05-08 05:29 54.56032 89.39128 36979 ft 521 kts 126°
2026-05-08 05:30 54.51977 89.49431 36964 ft 518 kts 126°
2026-05-08 05:30 54.47941 89.59650 36964 ft 515 kts 126°
2026-05-08 05:31 54.43906 89.69804 36964 ft 514 kts 126°
2026-05-08 05:31 54.39873 89.79945 36974 ft 514 kts 126°
2026-05-08 05:32 54.35828 89.90064 36973 ft 515 kts 126°
2026-05-08 05:32 54.31767 90.00173 37000 ft 516 kts 126°
2026-05-08 05:33 54.27682 90.10301 36987 ft 518 kts 126°
2026-05-08 05:33 54.23576 90.20441 36960 ft 519 kts 126°
2026-05-08 05:34 54.19447 90.30588 36971 ft 520 kts 126°
2026-05-08 05:34 54.15311 90.40736 36984 ft 521 kts 126°
2026-05-08 05:35 54.11187 90.50802 36982 ft 521 kts 126°
2026-05-08 05:35 54.07029 90.60905 36989 ft 521 kts 126°
2026-05-08 05:36 54.02865 90.70983 37002 ft 520 kts 126°
2026-05-08 05:36 53.99374 90.79401 36997 ft 520 kts 126°
2026-05-08 05:37 53.95206 90.89419 37006 ft 519 kts 126°
2026-05-08 05:37 53.91036 90.99398 37005 ft 518 kts 126°
2026-05-08 05:38 53.86886 91.09290 37023 ft 518 kts 126°
2026-05-08 05:38 53.82699 91.19235 37016 ft 518 kts 126°
2026-05-08 05:39 53.78508 91.29152 37022 ft 518 kts 126°
2026-05-08 05:39 53.74318 91.39067 37017 ft 518 kts 124°
2026-05-08 05:40 53.70431 91.49303 37025 ft 518 kts 122°
2026-05-08 05:40 53.66614 91.59612 37032 ft 518 kts 122°
2026-05-08 05:41 53.62772 91.69910 37017 ft 519 kts 122°
2026-05-08 05:41 53.58901 91.80185 37009 ft 520 kts 122°
2026-05-08 05:42 53.55011 91.90443 37004 ft 520 kts 122°
2026-05-08 05:42 53.51113 92.00681 37004 ft 520 kts 123°
2026-05-08 05:43 53.47207 92.10904 36993 ft 520 kts 122°
2026-05-08 05:43 53.43294 92.21105 37002 ft 520 kts 122°
2026-05-08 05:44 53.39375 92.31279 37008 ft 519 kts 122°
2026-05-08 05:44 53.35450 92.41430 37003 ft 519 kts 122°
2026-05-08 05:45 53.31520 92.51552 36999 ft 518 kts 122°
2026-05-08 05:45 53.27582 92.61653 37007 ft 519 kts 122°
2026-05-08 05:46 53.23634 92.71739 37000 ft 519 kts 123°
2026-05-08 05:46 53.19679 92.81805 36993 ft 518 kts 122°
2026-05-08 05:47 53.15741 92.91784 36992 ft 519 kts 123°
2026-05-08 05:47 53.11769 93.01812 37003 ft 519 kts 123°
2026-05-08 05:48 53.07789 93.11825 37008 ft 519 kts 122°
2026-05-08 05:48 53.03795 93.21824 37004 ft 519 kts 123°
2026-05-08 05:49 52.99790 93.31818 37012 ft 520 kts 123°
2026-05-08 05:49 52.95774 93.41799 36987 ft 520 kts 123°
2026-05-08 05:50 52.91754 93.51752 37010 ft 519 kts 123°
2026-05-08 05:50 52.87725 93.61688 37013 ft 520 kts 123°
2026-05-08 05:51 52.83691 93.71602 37023 ft 519 kts 123°
2026-05-08 05:51 52.79650 93.81485 37017 ft 519 kts 123°
2026-05-08 05:52 52.75600 93.91351 37018 ft 518 kts 123°
2026-05-08 05:52 52.71550 94.01193 37023 ft 518 kts 123°
2026-05-08 05:53 52.67516 94.10953 37016 ft 519 kts 123°
2026-05-08 05:53 52.63422 94.20823 37010 ft 518 kts 123°
2026-05-08 05:54 52.59379 94.30533 37024 ft 518 kts 123°
2026-05-08 05:54 52.55301 94.40291 37021 ft 517 kts 123°
2026-05-08 05:55 52.51216 94.50024 37012 ft 517 kts 123°
2026-05-08 05:55 52.47127 94.59743 37019 ft 518 kts 123°
2026-05-08 05:56 52.43031 94.69434 37029 ft 516 kts 123°
2026-05-08 05:56 52.38926 94.79100 37025 ft 517 kts 123°
2026-05-08 05:57 52.34805 94.88766 37024 ft 518 kts 123°
2026-05-08 05:57 52.30676 94.98427 37033 ft 519 kts 123°
2026-05-08 05:58 52.26527 95.08079 37040 ft 519 kts 123°
2026-05-08 05:58 52.22384 95.17720 37030 ft 519 kts 123°
2026-05-08 05:59 52.18225 95.27311 37037 ft 516 kts 123°
2026-05-08 05:59 52.14078 95.36875 37027 ft 517 kts 123°
2026-05-08 06:00 52.09918 95.46430 37039 ft 518 kts 123°
2026-05-08 06:00 52.05746 95.55970 37027 ft 518 kts 123°
2026-05-08 06:01 52.01585 95.65442 37027 ft 519 kts 123°
2026-05-08 06:01 51.97390 95.74971 37023 ft 520 kts 123°
2026-05-08 06:02 51.93178 95.84501 37030 ft 520 kts 123°
2026-05-08 06:02 51.88962 95.94002 37025 ft 519 kts 123°
2026-05-08 06:03 51.84738 96.03474 37022 ft 519 kts 123°
2026-05-08 06:03 51.80505 96.12913 37027 ft 517 kts 124°
2026-05-08 06:04 51.76298 96.22311 37023 ft 517 kts 124°
2026-05-08 06:04 51.72075 96.31695 37044 ft 517 kts 124°
2026-05-08 06:05 51.67832 96.41077 37025 ft 518 kts 124°
2026-05-08 06:05 51.63578 96.50451 37022 ft 519 kts 124°
2026-05-08 06:06 51.59307 96.59819 37008 ft 519 kts 124°
2026-05-08 06:06 51.55041 96.69164 37032 ft 519 kts 124°
2026-05-08 06:07 51.50752 96.78519 37031 ft 520 kts 124°
2026-05-08 06:07 51.46486 96.87795 37027 ft 520 kts 124°
2026-05-08 06:08 51.42151 96.97170 37021 ft 520 kts 124°
2026-05-08 06:08 51.37868 97.06404 37018 ft 520 kts 124°
2026-05-08 06:09 51.33525 97.15741 37031 ft 520 kts 124°
2026-05-08 06:09 51.29201 97.25004 37028 ft 520 kts 124°
2026-05-08 06:10 51.24869 97.34244 37034 ft 520 kts 124°
2026-05-08 06:10 51.20531 97.43465 37019 ft 519 kts 124°
2026-05-08 06:11 51.16192 97.52668 37028 ft 519 kts 124°
2026-05-08 06:11 51.11876 97.61780 37049 ft 519 kts 124°
2026-05-08 06:12 51.07525 97.70934 37013 ft 519 kts 125°
2026-05-08 06:12 51.03168 97.80075 37018 ft 519 kts 124°
2026-05-08 06:13 50.98900 97.89301 37021 ft 516 kts 120°
2026-05-08 06:13 50.95313 97.98435 37036 ft 515 kts 118°
2026-05-08 06:14 50.91551 98.08112 37027 ft 516 kts 119°
2026-05-08 06:14 50.87764 98.17745 37057 ft 515 kts 119°
2026-05-08 06:15 50.83981 98.27270 37021 ft 514 kts 119°
2026-05-08 06:15 50.80183 98.36807 37048 ft 512 kts 119°
2026-05-08 06:16 50.76374 98.46331 37080 ft 513 kts 120°
2026-05-08 06:16 50.72549 98.55852 37047 ft 514 kts 120°
2026-05-08 06:17 50.66803 98.70096 37035 ft 513 kts 120°
2026-05-08 06:17 50.62969 98.79568 37010 ft 512 kts 120°
2026-05-08 06:18 50.59132 98.89007 37015 ft 511 kts 120°
2026-05-08 06:18 50.55291 98.98422 37003 ft 511 kts 120°
2026-05-08 06:19 50.51440 99.07825 36981 ft 511 kts 120°
2026-05-08 06:19 50.47582 99.17213 36999 ft 512 kts 120°
2026-05-08 06:20 50.43710 99.26599 36998 ft 513 kts 120°
2026-05-08 06:20 50.39829 99.35977 37007 ft 513 kts 121°
2026-05-08 06:21 50.35939 99.45341 36998 ft 512 kts 121°
2026-05-08 06:21 50.32044 99.54685 37003 ft 512 kts 121°
2026-05-08 06:22 50.28144 99.64008 36984 ft 512 kts 121°
2026-05-08 06:22 50.24241 99.73304 37013 ft 511 kts 121°
2026-05-08 06:23 50.20358 99.82518 36969 ft 511 kts 121°
2026-05-08 06:23 50.16450 99.91762 36967 ft 510 kts 121°
2026-05-08 06:24 50.12544 100.00970 36964 ft 509 kts 121°
2026-05-08 06:24 50.08636 100.10150 36987 ft 508 kts 122°
2026-05-08 06:25 50.04727 100.19302 36956 ft 507 kts 122°
2026-05-08 06:25 50.00817 100.28429 36948 ft 507 kts 122°
2026-05-08 06:26 49.96900 100.37523 36952 ft 506 kts 122°
2026-05-08 06:26 49.92977 100.46596 36935 ft 506 kts 122°
2026-05-08 06:27 49.89047 100.55652 36958 ft 506 kts 123°
2026-05-08 06:27 49.85104 100.64710 36941 ft 507 kts 123°
2026-05-08 06:28 49.81156 100.73761 36936 ft 507 kts 123°
2026-05-08 06:28 49.77199 100.82794 36939 ft 507 kts 123°
2026-05-08 06:29 49.73228 100.91825 36949 ft 508 kts 123°
2026-05-08 06:29 49.69254 101.00836 36918 ft 508 kts 123°
2026-05-08 06:30 49.65271 101.09837 36904 ft 507 kts 123°
2026-05-08 06:30 49.61316 101.18745 36930 ft 507 kts 123°
2026-05-08 06:31 49.57321 101.27711 36904 ft 507 kts 123°
2026-05-08 06:31 49.53322 101.36659 36912 ft 507 kts 124°
2026-05-08 06:32 49.49316 101.45589 36900 ft 507 kts 124°
2026-05-08 06:32 49.45311 101.54487 36905 ft 506 kts 124°
2026-05-08 06:33 49.41304 101.63364 36900 ft 506 kts 124°
2026-05-08 06:33 49.37294 101.72216 36900 ft 505 kts 124°
2026-05-08 06:34 49.33275 101.81059 36919 ft 505 kts 124°
2026-05-08 06:34 49.29245 101.89896 36906 ft 506 kts 124°
2026-05-08 06:35 49.25206 101.98727 36911 ft 506 kts 124°
2026-05-08 06:35 49.21155 102.07557 36935 ft 507 kts 125°
2026-05-08 06:36 49.17039 102.16326 36928 ft 508 kts 126°
2026-05-08 06:36 49.12843 102.24997 36915 ft 508 kts 127°
2026-05-08 06:37 49.08647 102.33652 36931 ft 507 kts 126°
2026-05-08 06:37 49.04459 102.42304 36945 ft 507 kts 127°
2026-05-08 06:38 49.00269 102.50943 36923 ft 507 kts 127°
2026-05-08 06:38 48.96098 102.59519 36928 ft 507 kts 127°
2026-05-08 06:39 48.91892 102.68139 36943 ft 508 kts 127°
2026-05-08 06:39 48.87673 102.76754 36941 ft 508 kts 127°
2026-05-08 06:40 48.83449 102.85354 36944 ft 508 kts 127°
2026-05-08 06:40 48.79216 102.93945 36924 ft 508 kts 127°
2026-05-08 06:41 48.74979 103.02513 36930 ft 507 kts 127°
2026-05-08 06:41 48.70743 103.11056 36908 ft 508 kts 127°
2026-05-08 06:42 48.66500 103.19585 36910 ft 507 kts 128°
2026-05-08 06:42 48.62972 103.26658 36926 ft 506 kts 128°
2026-05-08 06:43 48.58726 103.35146 36918 ft 506 kts 128°
2026-05-08 06:43 48.54584 103.43740 36922 ft 506 kts 126°
2026-05-08 06:44 48.50545 103.52442 36932 ft 506 kts 126°
2026-05-08 06:44 48.46498 103.61121 36904 ft 505 kts 126°
2026-05-08 06:45 48.42431 103.69745 36902 ft 504 kts 126°
2026-05-08 06:45 48.38362 103.78319 36895 ft 503 kts 126°
2026-05-08 06:46 48.34292 103.86868 36896 ft 502 kts 126°
2026-05-08 06:46 48.30223 103.95392 36889 ft 502 kts 127°
2026-05-08 06:47 48.26154 104.03892 36888 ft 501 kts 127°
2026-05-08 06:47 48.22081 104.12372 36895 ft 501 kts 127°
2026-05-08 06:48 48.17996 104.20850 36886 ft 502 kts 127°
2026-05-08 06:48 48.13927 104.29272 36892 ft 503 kts 127°
2026-05-08 06:49 48.09816 104.37753 36891 ft 504 kts 127°
2026-05-08 06:49 48.05694 104.46230 36878 ft 504 kts 127°
2026-05-08 06:50 48.01564 104.54695 36864 ft 504 kts 127°
2026-05-08 06:50 47.97434 104.63138 36864 ft 504 kts 127°
2026-05-08 06:51 47.93299 104.71563 36874 ft 503 kts 127°
2026-05-08 06:51 47.89166 104.79958 36871 ft 502 kts 127°
2026-05-08 06:52 47.85032 104.88330 36865 ft 502 kts 127°
2026-05-08 06:52 47.80894 104.96689 36862 ft 501 kts 128°
2026-05-08 06:53 47.76726 105.04979 36862 ft 500 kts 129°
2026-05-08 06:53 47.72486 105.13173 36856 ft 500 kts 129°
2026-05-08 06:54 47.68245 105.21351 36859 ft 500 kts 129°
2026-05-08 06:54 47.64011 105.29527 36867 ft 500 kts 129°
2026-05-08 06:55 47.59775 105.37692 36852 ft 500 kts 129°
2026-05-08 06:55 47.55563 105.45785 36855 ft 500 kts 129°
2026-05-08 06:56 47.51325 105.53936 36860 ft 500 kts 129°
2026-05-08 06:56 47.47105 105.62109 36843 ft 500 kts 129°
2026-05-08 06:57 47.42884 105.70271 36851 ft 500 kts 129°
2026-05-08 06:57 47.38655 105.78414 36851 ft 500 kts 129°
2026-05-08 06:58 47.34420 105.86540 36845 ft 500 kts 129°
2026-05-08 06:58 47.30176 105.94655 36833 ft 500 kts 129°
2026-05-08 06:59 47.25924 106.02764 36840 ft 500 kts 129°
2026-05-08 06:59 47.21661 106.10870 36854 ft 501 kts 129°
2026-05-08 07:00 47.17390 106.18970 36858 ft 501 kts 130°
2026-05-08 07:00 47.13109 106.27062 36860 ft 502 kts 130°
2026-05-08 07:01 47.08815 106.35152 36863 ft 502 kts 130°
2026-05-08 07:01 47.04515 106.43233 36855 ft 503 kts 130°
2026-05-08 07:02 47.00207 106.51307 36843 ft 503 kts 130°
2026-05-08 07:02 46.95922 106.59313 36838 ft 503 kts 130°
2026-05-08 07:03 46.91603 106.67360 36847 ft 503 kts 130°
2026-05-08 07:03 46.87277 106.75399 36825 ft 503 kts 130°
2026-05-08 07:04 46.82943 106.83426 36832 ft 503 kts 130°
2026-05-08 07:04 46.78554 106.91386 36800 ft 503 kts 131°
2026-05-08 07:05 46.74138 106.99306 36803 ft 503 kts 131°
2026-05-08 07:05 46.69723 107.07216 36802 ft 503 kts 131°
2026-05-08 07:06 46.65305 107.15126 36797 ft 504 kts 131°
2026-05-08 07:06 46.60877 107.23038 36792 ft 504 kts 131°
2026-05-08 07:07 46.56442 107.30940 36791 ft 505 kts 131°
2026-05-08 07:07 46.51997 107.38836 36783 ft 505 kts 131°
2026-05-08 07:08 46.47545 107.46722 36782 ft 505 kts 131°
2026-05-08 07:08 46.43088 107.54595 36765 ft 505 kts 131°
2026-05-08 07:09 46.38619 107.62464 36778 ft 505 kts 131°
2026-05-08 07:09 46.34148 107.70316 36774 ft 505 kts 132°
2026-05-08 07:10 46.29669 107.78159 36770 ft 505 kts 132°
2026-05-08 07:10 46.25217 107.85934 36758 ft 505 kts 132°
2026-05-08 07:11 46.20731 107.93746 36759 ft 505 kts 132°
2026-05-08 07:11 46.16237 108.01550 36759 ft 505 kts 132°
2026-05-08 07:12 46.11739 108.09339 36740 ft 506 kts 132°
2026-05-08 07:12 46.07232 108.17121 36750 ft 506 kts 132°
2026-05-08 07:13 46.02719 108.24892 36747 ft 506 kts 132°
2026-05-08 07:13 45.98195 108.32661 36744 ft 507 kts 132°
2026-05-08 07:14 45.93661 108.40425 36738 ft 507 kts 132°
2026-05-08 07:14 45.89119 108.48181 36735 ft 507 kts 132°
2026-05-08 07:15 45.84569 108.55930 36712 ft 508 kts 132°
2026-05-08 07:15 45.80017 108.63662 36715 ft 508 kts 133°
2026-05-08 07:16 45.75455 108.71391 36716 ft 508 kts 133°
2026-05-08 07:16 45.70896 108.79120 36718 ft 508 kts 132°
2026-05-08 07:17 45.66375 108.86805 36711 ft 508 kts 132°
2026-05-08 07:17 45.61821 108.94529 36709 ft 508 kts 132°
2026-05-08 07:18 45.57261 109.02236 36706 ft 508 kts 132°
2026-05-08 07:18 45.52697 109.09924 36702 ft 508 kts 132°
2026-05-08 07:19 45.48127 109.17603 36715 ft 508 kts 133°
2026-05-08 07:19 45.43547 109.25277 36704 ft 508 kts 133°
2026-05-08 07:20 45.38962 109.32939 36711 ft 509 kts 133°
2026-05-08 07:20 45.34367 109.40597 36707 ft 509 kts 133°
2026-05-08 07:21 45.29766 109.48243 36711 ft 509 kts 133°
2026-05-08 07:21 45.25159 109.55880 36699 ft 509 kts 133°
2026-05-08 07:22 45.20546 109.63504 36708 ft 509 kts 133°
2026-05-08 07:22 45.15957 109.71069 36702 ft 510 kts 133°
2026-05-08 07:23 45.11329 109.78677 36706 ft 510 kts 133°
2026-05-08 07:23 45.06695 109.86275 36712 ft 510 kts 133°
2026-05-08 07:24 45.02056 109.93861 36702 ft 510 kts 133°
2026-05-08 07:24 44.97407 110.01444 36700 ft 510 kts 133°
2026-05-08 07:25 44.92756 110.09012 36711 ft 510 kts 133°
2026-05-08 07:26 44.85640 110.20176 36699 ft 510 kts 136°
2026-05-08 07:26 44.80725 110.27383 36713 ft 510 kts 136°
2026-05-08 07:27 44.75803 110.34604 36698 ft 511 kts 136°
2026-05-08 07:27 44.70896 110.41855 36685 ft 512 kts 136°
2026-05-08 07:28 44.65995 110.49109 36706 ft 512 kts 135°
2026-05-08 07:28 44.61081 110.56364 36706 ft 513 kts 136°
2026-05-08 07:29 44.56158 110.63609 36706 ft 513 kts 136°
2026-05-08 07:29 44.51226 110.70845 36707 ft 513 kts 136°
2026-05-08 07:30 44.46287 110.78071 36706 ft 514 kts 136°
2026-05-08 07:30 44.41371 110.85249 36702 ft 514 kts 136°
2026-05-08 07:31 44.36422 110.92453 36708 ft 514 kts 136°
2026-05-08 07:31 44.31466 110.99649 36713 ft 514 kts 136°
2026-05-08 07:32 44.26504 111.06834 36705 ft 514 kts 136°
2026-05-08 07:32 44.21535 111.14013 36711 ft 514 kts 136°
2026-05-08 07:33 44.16559 111.21183 36719 ft 514 kts 136°
2026-05-08 07:33 44.11580 111.28337 36709 ft 514 kts 136°
2026-05-08 07:34 44.06601 111.35474 36715 ft 514 kts 136°
2026-05-08 07:34 44.01615 111.42603 36713 ft 514 kts 136°
2026-05-08 07:35 43.97464 111.48524 36720 ft 515 kts 136°
2026-05-08 07:35 43.92465 111.55635 36720 ft 515 kts 136°
2026-05-08 07:36 43.87452 111.62753 36708 ft 516 kts 136°
2026-05-08 07:36 43.82430 111.69864 36719 ft 516 kts 136°
2026-05-08 07:37 43.77399 111.76970 36732 ft 517 kts 136°
2026-05-08 07:37 43.72359 111.84072 36724 ft 517 kts 136°
2026-05-08 07:38 43.67071 111.90775 36725 ft 515 kts 144°
2026-05-08 07:38 43.61076 111.96113 36714 ft 511 kts 153°
2026-05-08 07:39 43.54948 112.01102 36722 ft 512 kts 152°
2026-05-08 07:39 43.48875 112.06240 36729 ft 513 kts 151°
2026-05-08 07:40 43.42856 112.11381 36723 ft 513 kts 151°
2026-05-08 07:40 43.36593 112.15987 36709 ft 509 kts 157°
2026-05-08 07:41 43.30206 112.20198 36722 ft 509 kts 158°
2026-05-08 07:41 43.23812 112.24416 36725 ft 510 kts 158°
2026-05-08 07:42 43.17424 112.28662 36728 ft 511 kts 157°
2026-05-08 07:42 43.11036 112.32918 36722 ft 511 kts 157°
2026-05-08 07:43 43.04645 112.37166 36726 ft 511 kts 157°
2026-05-08 07:43 42.98242 112.41409 36735 ft 511 kts 157°
2026-05-08 07:44 42.91835 112.45644 36767 ft 511 kts 157°
2026-05-08 07:44 42.85442 112.49861 36838 ft 511 kts 157°
2026-05-08 07:45 42.79038 112.54074 36848 ft 512 kts 157°
2026-05-08 07:45 42.72622 112.58285 36850 ft 512 kts 158°
2026-05-08 07:46 42.66196 112.62493 36846 ft 513 kts 158°
2026-05-08 07:46 42.59807 112.66668 36857 ft 513 kts 158°
2026-05-08 07:47 42.53371 112.70863 36867 ft 514 kts 158°
2026-05-08 07:47 42.46923 112.75057 36854 ft 514 kts 158°
2026-05-08 07:48 42.40484 112.79236 36878 ft 514 kts 158°
2026-05-08 07:48 42.34029 112.83414 36882 ft 514 kts 158°
2026-05-08 07:49 42.27567 112.87589 36884 ft 515 kts 158°
2026-05-08 07:49 42.21099 112.91757 36887 ft 515 kts 158°
2026-05-08 07:50 42.14623 112.95921 36897 ft 516 kts 158°
2026-05-08 07:50 42.08140 113.00081 36907 ft 516 kts 158°
2026-05-08 07:51 42.01655 113.04233 36899 ft 516 kts 158°
2026-05-08 07:51 41.95167 113.08377 36911 ft 516 kts 158°
2026-05-08 07:52 41.88675 113.12516 36931 ft 517 kts 158°
2026-05-08 07:52 41.82171 113.16655 36921 ft 518 kts 158°
2026-05-08 07:53 41.75674 113.20820 36930 ft 518 kts 158°
2026-05-08 07:53 41.69154 113.25001 36588 ft 522 kts 158°
2026-05-08 07:53 41.65887 113.27093 36192 ft 518 kts 158°
2026-05-08 07:54 41.62656 113.29159 35802 ft 512 kts 158°
2026-05-08 07:54 41.59461 113.31201 35406 ft 506 kts 158°
2026-05-08 07:54 41.56346 113.33187 35028 ft 500 kts 158°
2026-05-08 07:54 41.53228 113.35171 34665 ft 494 kts 158°
2026-05-08 07:55 41.50138 113.37135 34297 ft 489 kts 158°
2026-05-08 07:55 41.47077 113.39078 33923 ft 485 kts 158°
2026-05-08 07:55 41.44043 113.41002 33524 ft 481 kts 158°
2026-05-08 07:55 41.41030 113.42911 33131 ft 477 kts 158°
2026-05-08 07:56 41.38033 113.44807 32734 ft 478 kts 157°
2026-05-08 07:56 41.35024 113.46709 32346 ft 479 kts 157°
2026-05-08 07:56 41.32009 113.48615 31959 ft 480 kts 157°
2026-05-08 07:56 41.29004 113.50513 31578 ft 477 kts 157°
2026-05-08 07:57 41.26010 113.52400 31201 ft 475 kts 157°
2026-05-08 07:57 41.23033 113.54273 30828 ft 472 kts 157°
2026-05-08 07:57 41.20073 113.56132 30453 ft 469 kts 157°
2026-05-08 07:57 41.17133 113.57976 30091 ft 466 kts 157°
2026-05-08 07:58 41.14211 113.59806 29687 ft 462 kts 156°
2026-05-08 07:58 41.11316 113.61620 29245 ft 459 kts 156°
2026-05-08 07:58 41.08444 113.63418 28827 ft 455 kts 156°
2026-05-08 07:58 41.05591 113.65203 28416 ft 452 kts 156°
2026-05-08 07:59 41.02759 113.66972 28010 ft 449 kts 156°
2026-05-08 07:59 40.99944 113.68729 27614 ft 445 kts 156°
2026-05-08 07:59 40.97155 113.70468 27222 ft 442 kts 156°
2026-05-08 07:59 40.94378 113.72198 26833 ft 439 kts 156°
2026-05-08 08:00 40.91663 113.73887 26490 ft 435 kts 156°
2026-05-08 08:00 40.88912 113.75599 26485 ft 429 kts 157°
2026-05-08 08:00 40.86200 113.77282 26481 ft 433 kts 157°
2026-05-08 08:00 40.83467 113.78976 26501 ft 448 kts 157°
2026-05-08 08:01 40.80596 113.80752 26504 ft 465 kts 156°
2026-05-08 08:01 40.77613 113.82598 26501 ft 480 kts 156°
2026-05-08 08:01 40.74542 113.84498 26500 ft 495 kts 156°
2026-05-08 08:01 40.71380 113.86454 26502 ft 509 kts 156°
2026-05-08 08:02 40.68140 113.88458 26487 ft 521 kts 156°
2026-05-08 08:02 40.64828 113.90503 26484 ft 531 kts 156°
2026-05-08 08:02 40.61461 113.92581 26487 ft 536 kts 156°
2026-05-08 08:02 40.58095 113.94670 26470 ft 531 kts 154°
2026-05-08 08:03 40.54992 113.97335 26453 ft 537 kts 139°
2026-05-08 08:03 40.52560 114.01051 26471 ft 538 kts 121°
2026-05-08 08:03 40.50898 114.05444 26466 ft 537 kts 108°
2026-05-08 08:03 40.49997 114.10171 26446 ft 532 kts 94°
2026-05-08 08:04 40.49803 114.14904 26478 ft 507 kts 89°
2026-05-08 08:04 40.49687 114.19448 26438 ft 489 kts 89°
2026-05-08 08:04 40.49560 114.23843 26441 ft 478 kts 89°
2026-05-08 08:04 40.49416 114.28182 26391 ft 474 kts 89°
2026-05-08 08:05 40.49253 114.32490 26097 ft 471 kts 90°
2026-05-08 08:05 40.49076 114.36789 25734 ft 471 kts 90°
2026-05-08 08:05 40.48888 114.41080 25385 ft 470 kts 90°
2026-05-08 08:05 40.48694 114.45363 25055 ft 469 kts 90°
2026-05-08 08:06 40.48498 114.49624 24778 ft 466 kts 90°
2026-05-08 08:06 40.48301 114.53865 24515 ft 464 kts 90°
2026-05-08 08:06 40.48105 114.58083 24248 ft 462 kts 90°
2026-05-08 08:06 40.47907 114.62286 23977 ft 460 kts 90°
2026-05-08 08:07 40.47710 114.66469 23710 ft 458 kts 90°
2026-05-08 08:07 40.47513 114.70637 23430 ft 456 kts 90°
2026-05-08 08:07 40.47316 114.74785 23136 ft 454 kts 90°
2026-05-08 08:07 40.47118 114.78919 22809 ft 453 kts 90°
2026-05-08 08:08 40.46922 114.83034 22507 ft 451 kts 91°
2026-05-08 08:08 40.46719 114.87135 22220 ft 449 kts 91°
2026-05-08 08:08 40.46517 114.91213 21941 ft 447 kts 91°
2026-05-08 08:08 40.46314 114.95279 21636 ft 445 kts 91°
2026-05-08 08:09 40.46114 114.99327 21146 ft 444 kts 91°
2026-05-08 08:09 40.45911 115.03357 20610 ft 441 kts 90°
2026-05-08 08:09 40.45707 115.07359 20067 ft 438 kts 90°
2026-05-08 08:09 40.45504 115.11339 19532 ft 436 kts 91°
2026-05-08 08:10 40.45304 115.15246 19029 ft 433 kts 91°
2026-05-08 08:10 40.45102 115.19179 18514 ft 431 kts 91°
2026-05-08 08:10 40.44899 115.23098 17922 ft 430 kts 91°
2026-05-08 08:10 40.44696 115.27004 17336 ft 427 kts 91°
2026-05-08 08:11 40.44492 115.30878 16778 ft 424 kts 91°
2026-05-08 08:11 40.44287 115.34726 16255 ft 420 kts 90°
2026-05-08 08:11 40.44084 115.38536 15737 ft 417 kts 91°
2026-05-08 08:11 40.43882 115.42322 15222 ft 414 kts 91°
2026-05-08 08:12 40.43681 115.46080 14699 ft 411 kts 91°
2026-05-08 08:12 40.43480 115.49814 14187 ft 409 kts 91°
2026-05-08 08:12 40.43277 115.53525 13700 ft 406 kts 91°
2026-05-08 08:12 40.43101 115.57185 13382 ft 397 kts 90°
2026-05-08 08:13 40.42947 115.60779 13098 ft 393 kts 90°
2026-05-08 08:13 40.42797 115.64348 12871 ft 390 kts 90°
2026-05-08 08:13 40.42643 115.67894 12782 ft 388 kts 90°
2026-05-08 08:13 40.42485 115.71430 12757 ft 390 kts 90°
2026-05-08 08:14 40.42324 115.74997 12759 ft 394 kts 90°
2026-05-08 08:14 40.42154 115.78604 12764 ft 396 kts 91°
2026-05-08 08:14 40.41981 115.82205 12752 ft 393 kts 91°
2026-05-08 08:14 40.41809 115.85720 12735 ft 378 kts 91°
2026-05-08 08:15 40.41642 115.89094 12731 ft 363 kts 90°
2026-05-08 08:15 40.41483 115.92331 12710 ft 349 kts 90°
2026-05-08 08:15 40.41332 115.95413 12561 ft 329 kts 90°
2026-05-08 08:15 40.41187 115.98348 12212 ft 317 kts 90°
2026-05-08 08:16 40.41049 116.01207 11695 ft 312 kts 90°
2026-05-08 08:16 40.40912 116.04034 11098 ft 310 kts 91°
2026-05-08 08:16 40.40774 116.06856 10508 ft 309 kts 91°
2026-05-08 08:16 40.40634 116.09657 9982 ft 306 kts 92°
2026-05-08 08:17 40.40496 116.12432 9445 ft 303 kts 93°
2026-05-08 08:17 40.40358 116.15157 8975 ft 297 kts 92°
2026-05-08 08:17 40.40297 116.17855 8480 ft 298 kts 89°
2026-05-08 08:17 40.40329 116.20551 8335 ft 301 kts 89°
2026-05-08 08:18 40.40372 116.23360 8273 ft 307 kts 88°
2026-05-08 08:18 40.40415 116.26134 8190 ft 306 kts 89°
2026-05-08 08:18 40.40451 116.28903 8072 ft 301 kts 90°
2026-05-08 08:18 40.40479 116.31625 7947 ft 297 kts 90°
2026-05-08 08:19 40.40504 116.34317 7832 ft 293 kts 90°
2026-05-08 08:19 40.40527 116.36979 7662 ft 292 kts 90°
2026-05-08 08:19 40.40549 116.39661 7599 ft 293 kts 90°
2026-05-08 08:19 40.40571 116.42304 7236 ft 285 kts 91°
2026-05-08 08:20 40.40592 116.44864 6861 ft 276 kts 92°
2026-05-08 08:20 40.40612 116.47339 6502 ft 267 kts 92°
2026-05-08 08:20 40.40631 116.49738 6121 ft 259 kts 94°
2026-05-08 08:20 40.40648 116.52074 5735 ft 252 kts 94°
2026-05-08 08:21 40.40382 116.54259 5322 ft 237 kts 121°
2026-05-08 08:21 40.39344 116.55811 4921 ft 226 kts 154°
2026-05-08 08:21 40.37888 116.56468 4637 ft 221 kts 167°
2026-05-08 08:21 40.36369 116.56893 4283 ft 224 kts 171°
2026-05-08 08:22 40.34814 116.57210 3943 ft 226 kts 173°
2026-05-08 08:22 40.33292 116.57466 3900 ft 213 kts 174°
2026-05-08 08:22 40.31872 116.57690 3915 ft 197 kts 174°
2026-05-08 08:22 40.30549 116.57897 3892 ft 190 kts 173°
2026-05-08 08:23 40.29260 116.58100 3910 ft 184 kts 173°
2026-05-08 08:23 40.28011 116.58298 3894 ft 177 kts 174°
2026-05-08 08:23 40.26749 116.58492 3686 ft 186 kts 174°
2026-05-08 08:23 40.25478 116.58690 3447 ft 182 kts 174°
2026-05-08 08:24 40.24245 116.58889 3180 ft 174 kts 174°
2026-05-08 08:24 40.23060 116.59076 2952 ft 172 kts 174°
2026-05-08 08:24 40.21864 116.59260 2744 ft 172 kts 174°
2026-05-08 08:24 40.20709 116.59442 2485 ft 162 kts 175°
2026-05-08 08:25 40.19634 116.59613 2265 ft 150 kts 174°
2026-05-08 08:25 40.18971 116.59716 2142 ft 140 kts 174°
2026-05-08 08:25 40.18021 116.59866 1943 ft 135 kts 174°
2026-05-08 08:25 40.17093 116.60011 1763 ft 135 kts 173°
2026-05-08 08:26 40.16155 116.60160 1571 ft 138 kts 175°
2026-05-08 08:26 40.15186 116.60313 1391 ft 141 kts 175°
2026-05-08 08:26 40.14213 116.60477 1172 ft 142 kts 175°
2026-05-08 08:26 40.13240 116.60620 993 ft 141 kts 174°
2026-05-08 08:27 40.12261 116.60772 795 ft 138 kts 174°
2026-05-08 08:27 40.11322 116.60926 588 ft 136 kts 175°
2026-05-08 08:27 40.10374 116.61070 394 ft 140 kts 175°
2026-05-08 08:27 40.09408 116.61224 214 ft 139 kts 176°
2026-05-08 08:28 40.08473 116.61365 125 ft 123 kts 172°
2026-05-08 08:28 40.07808 116.61468 125 ft 70 kts 173°
2026-05-08 08:28 40.07510 116.61513 126 ft 18 kts 174°
2026-05-08 08:28 40.07339 116.61506 126 ft 32 kts 190°
2026-05-08 08:29 40.07153 116.61417 126 ft 17 kts 203°
2026-05-08 08:29 40.07046 116.61367 126 ft 16 kts 191°
2026-05-08 08:29 40.06973 116.61341 125 ft 7 kts 237°
2026-05-08 08:29 40.06962 116.61267 126 ft 11 kts 265°
2026-05-08 08:30 40.06954 116.61169 124 ft 11 kts 263°
2026-05-08 08:30 40.06945 116.61065 127 ft 12 kts 263°
2026-05-08 08:30 40.06924 116.60847 124 ft 12 kts 263°
2026-05-08 08:31 40.06915 116.60738 126 ft 12 kts 263°
2026-05-08 08:31 40.06904 116.60629 127 ft 12 kts 263°
2026-05-08 08:31 40.06894 116.60520 127 ft 12 kts 263°
2026-05-08 08:31 40.06890 116.60441 127 ft 5 kts 286°
2026-05-08 08:32 40.06919 116.60417 124 ft 6 kts 341°
2026-05-08 08:32 40.06976 116.60406 124 ft 9 kts 354°
2026-05-08 08:32 40.07042 116.60396 126 ft 8 kts 353°
2026-05-08 08:32 40.07070 116.60410 126 ft 3 kts 53°
2026-05-08 08:33 40.07078 116.60450 125 ft 6 kts 80°
2026-05-08 08:33 40.07081 116.60497 124 ft 3 kts 84°
2026-05-08 08:33 40.07083 116.60516 125 ft 2 kts 84°
2026-05-08 08:33 40.07083 116.60517 125 ft 0 kts 84°